Time,TemperatureF,DewpointF,PressureIn,WindDirection,WindDirectionDegrees,WindSpeedMPH,WindSpeedGustMPH,Humidity,HourlyPrecipIn,Conditions,Clouds,dailyrainin,SoftwareType,DateUTC
2013-04-26 00:00:00,52.0,44.7,30.31,West,261,0.0,0.0,76,0.00,CLR,,0.00,WeatherDisplay:10.37,2013-04-26 04:00:00,
2013-04-26 00:01:00,52.0,45.0,30.31,West,261,0.0,0.0,77,0.00,CLR,,0.00,WeatherDisplay:10.37,2013-04-26 04:01:00,
2013-04-26 00:06:00,51.8,44.8,30.31,West,261,0.0,0.0,77,0.00,CLR,,0.00,WeatherDisplay:10.37,2013-04-26 04:06:00,
2013-04-26 00:07:00,51.7,45.1,30.31,West,261,0.0,0.0,78,0.00,CLR,,0.00,WeatherDisplay:10.37,2013-04-26 04:07:00,
2013-04-26 00:11:00,51.6,44.6,30.31,West,261,0.0,0.0,77,0.00,CLR,,0.00,WeatherDisplay:10.37,2013-04-26 04:11:00,
2013-04-26 00:12:00,51.5,44.5,30.31,West,261,0.0,0.0,77,0.00,CLR,,0.00,WeatherDisplay:10.37,2013-04-26 04:12:00,
2013-04-26 00:16:00,51.4,44.4,30.31,West,261,0.0,0.0,77,0.00,CLR,,0.00,WeatherDisplay:10.37,2013-04-26 04:16:00,
2013-04-26 00:17:00,51.3,44.3,30.31,West,261,0.0,0.0,77,0.00,CLR,,0.00,WeatherDisplay:10.37,2013-04-26 04:17:00,
2013-04-26 00:21:00,50.9,44.3,30.31,West,261,0.0,0.0,78,0.00,CLR,,0.00,WeatherDisplay:10.37,2013-04-26 04:21:00,
2013-04-26 00:22:00,50.8,44.5,30.31,West,261,0.0,0.0,79,0.00,CLR,,0.00,WeatherDisplay:10.37,2013-04-26 04:22:00,
2013-04-26 00:26:00,50.9,44.3,30.31,West,261,0.0,0.0,78,0.00,CLR,,0.00,WeatherDisplay:10.37,2013-04-26 04:26:00,
2013-04-26 00:27:00,50.9,44.6,30.31,West,261,0.0,0.0,79,0.00,CLR,,0.00,WeatherDisplay:10.37,2013-04-26 04:27:00,
2013-04-26 00:28:00,50.9,44.6,30.31,West,261,0.0,0.0,79,0.00,CLR,,0.00,WeatherDisplay:10.37,2013-04-26 04:28:00,
2013-04-26 00:32:00,50.9,44.6,30.31,West,261,0.0,0.0,79,0.00,CLR,,0.00,WeatherDisplay:10.37,2013-04-26 04:32:00,
2013-04-26 00:33:00,50.9,44.6,30.31,West,261,0.0,0.0,79,0.00,CLR,,0.00,WeatherDisplay:10.37,2013-04-26 04:33:00,
2013-04-26 00:37:00,50.5,43.6,30.31,West,261,0.0,0.0,77,0.00,CLR,,0.00,WeatherDisplay:10.37,2013-04-26 04:37:00,
2013-04-26 00:38:00,50.4,43.1,30.31,West,261,0.0,0.0,76,0.00,CLR,,0.00,WeatherDisplay:10.37,2013-04-26 04:38:00,
2013-04-26 00:42:00,50.3,43.7,30.31,West,261,0.0,0.0,78,0.00,CLR,,0.00,WeatherDisplay:10.37,2013-04-26 04:42:00,
2013-04-26 00:43:00,50.3,43.7,30.32,West,261,0.0,0.0,78,0.00,CLR,,0.00,WeatherDisplay:10.37,2013-04-26 04:43:00,
2013-04-26 00:44:00,50.3,43.4,30.32,West,261,0.0,0.0,77,0.00,CLR,,0.00,WeatherDisplay:10.37,2013-04-26 04:44:00,
2013-04-26 00:47:00,50.3,43.4,30.32,West,261,0.0,0.0,77,0.00,CLR,,0.00,WeatherDisplay:10.37,2013-04-26 04:47:00,
2013-04-26 00:48:00,50.3,43.4,30.32,West,261,0.0,0.0,77,0.00,CLR,,0.00,WeatherDisplay:10.37,2013-04-26 04:48:00,
2013-04-26 00:49:00,50.3,43.7,30.32,West,261,0.0,0.0,78,0.00,CLR,,0.00,WeatherDisplay:10.37,2013-04-26 04:49:00,
2013-04-26 00:52:00,50.2,43.6,30.32,West,261,0.0,0.0,78,0.00,CLR,,0.00,WeatherDisplay:10.37,2013-04-26 04:52:00,
2013-04-26 00:53:00,50.2,43.6,30.32,West,261,0.0,0.0,78,0.00,CLR,,0.00,WeatherDisplay:10.37,2013-04-26 04:53:00,
2013-04-26 00:54:00,50.2,43.6,30.32,West,261,0.0,0.0,78,0.00,CLR,,0.00,WeatherDisplay:10.37,2013-04-26 04:54:00,
2013-04-26 00:57:00,50.0,43.4,30.32,West,261,0.0,0.0,78,0.00,CLR,,0.00,WeatherDisplay:10.37,2013-04-26 04:57:00,
2013-04-26 00:58:00,50.0,43.4,30.32,West,261,0.0,0.0,78,0.00,CLR,,0.00,WeatherDisplay:10.37,2013-04-26 04:58:00,
2013-04-26 00:59:00,50.0,43.4,30.32,West,261,0.0,0.0,78,0.00,CLR,,0.00,WeatherDisplay:10.37,2013-04-26 04:59:00,
2013-04-26 01:03:00,49.8,43.5,30.32,West,261,0.0,0.0,79,0.00,CLR,,0.00,WeatherDisplay:10.37,2013-04-26 05:03:00,
2013-04-26 01:04:00,49.8,43.5,30.32,West,261,0.0,0.0,79,0.00,CLR,,0.00,WeatherDisplay:10.37,2013-04-26 05:04:00,
2013-04-26 01:08:00,49.7,43.5,30.32,West,261,0.0,0.0,79,0.00,CLR,,0.00,WeatherDisplay:10.37,2013-04-26 05:08:00,
2013-04-26 01:09:00,49.7,43.5,30.32,West,261,0.0,0.0,79,0.00,CLR,,0.00,WeatherDisplay:10.37,2013-04-26 05:09:00,
2013-04-26 01:10:00,49.6,43.4,30.32,West,261,0.0,0.0,79,0.00,CLR,,0.00,WeatherDisplay:10.37,2013-04-26 05:10:00,
2013-04-26 01:13:00,49.5,43.3,30.32,West,261,0.0,0.0,79,0.00,CLR,,0.00,WeatherDisplay:10.37,2013-04-26 05:13:00,
2013-04-26 01:14:00,49.5,43.9,30.32,West,261,0.0,0.0,81,0.00,CLR,,0.00,WeatherDisplay:10.37,2013-04-26 05:14:00,
2013-04-26 01:15:00,49.4,43.2,30.32,West,261,0.0,0.0,79,0.00,CLR,,0.00,WeatherDisplay:10.37,2013-04-26 05:15:00,
2013-04-26 01:18:00,49.2,43.0,30.32,West,261,0.0,0.0,79,0.00,CLR,,0.00,WeatherDisplay:10.37,2013-04-26 05:18:00,
2013-04-26 01:19:00,49.2,43.0,30.32,West,261,0.0,0.0,79,0.00,CLR,,0.00,WeatherDisplay:10.37,2013-04-26 05:19:00,
2013-04-26 01:20:00,49.1,42.9,30.32,West,261,0.0,0.0,79,0.00,CLR,,0.00,WeatherDisplay:10.37,2013-04-26 05:20:00,
2013-04-26 01:23:00,49.0,42.8,30.32,West,261,0.0,0.0,79,0.00,CLR,,0.00,WeatherDisplay:10.37,2013-04-26 05:23:00,
2013-04-26 01:24:00,48.9,43.0,30.32,West,261,0.0,0.0,80,0.00,CLR,,0.00,WeatherDisplay:10.37,2013-04-26 05:24:00,
2013-04-26 01:25:00,48.9,43.0,30.32,West,261,0.0,0.0,80,0.00,CLR,,0.00,WeatherDisplay:10.37,2013-04-26 05:25:00,
2013-04-26 01:26:00,48.8,42.9,30.32,West,261,0.0,0.0,80,0.00,CLR,,0.00,WeatherDisplay:10.37,2013-04-26 05:26:00,
2013-04-26 01:28:00,48.7,42.8,30.32,West,261,0.0,0.0,80,0.00,CLR,,0.00,WeatherDisplay:10.37,2013-04-26 05:28:00,
2013-04-26 01:29:00,48.7,42.5,30.32,West,261,0.0,0.0,79,0.00,CLR,,0.00,WeatherDisplay:10.37,2013-04-26 05:29:00,
2013-04-26 01:30:00,48.7,42.8,30.32,West,261,0.0,0.0,80,0.00,CLR,,0.00,WeatherDisplay:10.37,2013-04-26 05:30:00,
2013-04-26 01:31:00,48.6,42.7,30.32,West,261,0.0,0.0,80,0.00,CLR,,0.00,WeatherDisplay:10.37,2013-04-26 05:31:00,
2013-04-26 01:33:00,48.6,42.4,30.32,West,261,0.0,0.0,79,0.00,CLR,,0.00,WeatherDisplay:10.37,2013-04-26 05:33:00,
2013-04-26 01:34:00,48.6,42.7,30.32,West,261,0.0,0.0,80,0.00,CLR,,0.00,WeatherDisplay:10.37,2013-04-26 05:34:00,
2013-04-26 01:35:00,48.5,42.6,30.32,West,261,0.0,0.0,80,0.00,CLR,,0.00,WeatherDisplay:10.37,2013-04-26 05:35:00,
2013-04-26 01:36:00,48.5,42.6,30.32,West,261,0.0,0.0,80,0.00,CLR,,0.00,WeatherDisplay:10.37,2013-04-26 05:36:00,
2013-04-26 01:38:00,48.5,42.6,30.32,West,261,0.0,0.0,80,0.00,CLR,,0.00,WeatherDisplay:10.37,2013-04-26 05:38:00,
2013-04-26 01:39:00,48.5,42.6,30.32,West,261,0.0,0.0,80,0.00,CLR,,0.00,WeatherDisplay:10.37,2013-04-26 05:39:00,
2013-04-26 01:40:00,48.5,42.6,30.32,West,261,0.0,0.0,80,0.00,CLR,,0.00,WeatherDisplay:10.37,2013-04-26 05:40:00,
2013-04-26 01:41:00,48.5,42.9,30.32,West,261,0.0,0.0,81,0.00,CLR,,0.00,WeatherDisplay:10.37,2013-04-26 05:41:00,
2013-04-26 01:43:00,48.4,42.5,30.32,West,261,0.0,0.0,80,0.00,CLR,,0.00,WeatherDisplay:10.37,2013-04-26 05:43:00,
2013-04-26 01:44:00,48.4,42.5,30.32,West,261,0.0,0.0,80,0.00,CLR,,0.00,WeatherDisplay:10.37,2013-04-26 05:44:00,
2013-04-26 01:45:00,48.4,42.5,30.32,West,261,0.0,0.0,80,0.00,CLR,,0.00,WeatherDisplay:10.37,2013-04-26 05:45:00,
2013-04-26 01:46:00,48.3,42.4,30.32,West,261,0.0,0.0,80,0.00,CLR,,0.00,WeatherDisplay:10.37,2013-04-26 05:46:00,
2013-04-26 01:49:00,48.1,42.2,30.32,West,261,0.0,0.0,80,0.00,CLR,,0.00,WeatherDisplay:10.37,2013-04-26 05:49:00,
2013-04-26 01:50:00,47.9,42.3,30.32,West,261,0.0,0.0,81,0.00,CLR,,0.00,WeatherDisplay:10.37,2013-04-26 05:50:00,
2013-04-26 01:51:00,47.9,42.3,30.32,West,261,0.0,0.0,81,0.00,CLR,,0.00,WeatherDisplay:10.37,2013-04-26 05:51:00,
2013-04-26 01:54:00,47.8,42.3,30.32,West,261,0.0,0.0,81,0.00,CLR,,0.00,WeatherDisplay:10.37,2013-04-26 05:54:00,
2013-04-26 01:55:00,47.8,42.6,30.32,West,261,0.0,0.0,82,0.00,CLR,,0.00,WeatherDisplay:10.37,2013-04-26 05:55:00,
2013-04-26 01:56:00,47.8,42.6,30.32,West,261,0.0,0.0,82,0.00,CLR,,0.00,WeatherDisplay:10.37,2013-04-26 05:56:00,
2013-04-26 01:59:00,47.6,42.1,30.32,West,261,0.0,0.0,81,0.00,CLR,,0.00,WeatherDisplay:10.37,2013-04-26 05:59:00,
2013-04-26 02:01:00,47.5,42.3,30.32,West,261,0.0,0.0,82,0.00,CLR,,0.00,WeatherDisplay:10.37,2013-04-26 06:01:00,
2013-04-26 02:02:00,47.4,42.5,30.32,West,261,0.0,0.0,83,0.00,CLR,,0.00,WeatherDisplay:10.37,2013-04-26 06:02:00,
2013-04-26 02:05:00,47.3,42.4,30.32,West,261,0.0,0.0,83,0.00,CLR,,0.00,WeatherDisplay:10.37,2013-04-26 06:05:00,
2013-04-26 02:06:00,47.1,42.2,30.32,West,261,0.0,0.0,83,0.00,CLR,,0.00,WeatherDisplay:10.37,2013-04-26 06:06:00,
2013-04-26 02:07:00,47.1,42.5,30.32,West,261,0.0,0.0,84,0.00,CLR,,0.00,WeatherDisplay:10.37,2013-04-26 06:07:00,
2013-04-26 02:10:00,47.0,42.4,30.32,West,261,0.0,0.0,84,0.00,CLR,,0.00,WeatherDisplay:10.37,2013-04-26 06:10:00,
2013-04-26 02:11:00,46.9,42.3,30.32,West,261,0.0,0.0,84,0.00,CLR,,0.00,WeatherDisplay:10.37,2013-04-26 06:11:00,
2013-04-26 02:12:00,46.9,42.3,30.32,West,261,0.0,0.0,84,0.00,CLR,,0.00,WeatherDisplay:10.37,2013-04-26 06:12:00,
2013-04-26 02:15:00,46.9,42.3,30.32,West,261,0.0,0.0,84,0.00,CLR,,0.00,WeatherDisplay:10.37,2013-04-26 06:15:00,
2013-04-26 02:16:00,46.9,42.3,30.32,West,261,0.0,0.0,84,0.00,CLR,,0.00,WeatherDisplay:10.37,2013-04-26 06:16:00,
2013-04-26 02:17:00,47.0,42.4,30.32,West,261,0.0,0.0,84,0.00,CLR,,0.00,WeatherDisplay:10.37,2013-04-26 06:17:00,
2013-04-26 02:20:00,47.0,42.1,30.32,West,261,0.0,0.0,83,0.00,CLR,,0.00,WeatherDisplay:10.37,2013-04-26 06:20:00,
2013-04-26 02:21:00,46.9,42.0,30.32,West,261,0.0,0.0,83,0.00,CLR,,0.00,WeatherDisplay:10.37,2013-04-26 06:21:00,
2013-04-26 02:22:00,46.9,42.0,30.32,West,261,0.0,0.0,83,0.00,CLR,,0.00,WeatherDisplay:10.37,2013-04-26 06:22:00,
2013-04-26 02:25:00,46.5,41.6,30.32,West,261,0.0,0.0,83,0.00,CLR,,0.00,WeatherDisplay:10.37,2013-04-26 06:25:00,
2013-04-26 02:27:00,46.5,41.9,30.32,West,261,0.0,0.0,84,0.00,CLR,,0.00,WeatherDisplay:10.37,2013-04-26 06:27:00,
2013-04-26 02:31:00,46.3,41.7,30.32,West,261,0.0,0.0,84,0.00,CLR,,0.00,WeatherDisplay:10.37,2013-04-26 06:31:00,
2013-04-26 02:32:00,46.3,41.7,30.32,West,261,0.0,0.0,84,0.00,CLR,,0.00,WeatherDisplay:10.37,2013-04-26 06:32:00,
2013-04-26 02:33:00,46.4,41.8,30.32,West,261,0.0,0.0,84,0.00,CLR,,0.00,WeatherDisplay:10.37,2013-04-26 06:33:00,
2013-04-26 02:36:00,46.4,41.8,30.32,West,261,0.0,0.0,84,0.00,CLR,,0.00,WeatherDisplay:10.37,2013-04-26 06:36:00,
2013-04-26 02:37:00,46.4,41.8,30.32,West,261,0.0,0.0,84,0.00,CLR,,0.00,WeatherDisplay:10.37,2013-04-26 06:37:00,
2013-04-26 02:38:00,46.4,41.8,30.32,West,261,0.0,0.0,84,0.00,CLR,,0.00,WeatherDisplay:10.37,2013-04-26 06:38:00,
2013-04-26 02:41:00,46.4,41.8,30.32,West,261,0.0,0.0,84,0.00,CLR,,0.00,WeatherDisplay:10.37,2013-04-26 06:41:00,
2013-04-26 02:42:00,46.3,41.4,30.32,West,261,0.0,0.0,83,0.00,CLR,,0.00,WeatherDisplay:10.37,2013-04-26 06:42:00,
2013-04-26 02:43:00,46.3,41.7,30.32,West,261,0.0,0.0,84,0.00,CLR,,0.00,WeatherDisplay:10.37,2013-04-26 06:43:00,
2013-04-26 02:46:00,46.2,41.3,30.32,West,261,0.0,0.0,83,0.00,CLR,,0.00,WeatherDisplay:10.37,2013-04-26 06:46:00,
2013-04-26 02:48:00,46.1,41.2,30.32,West,261,0.0,0.0,83,0.00,CLR,,0.00,WeatherDisplay:10.37,2013-04-26 06:48:00,
2013-04-26 02:52:00,46.0,41.1,30.32,West,261,0.0,0.0,83,0.00,CLR,,0.00,WeatherDisplay:10.37,2013-04-26 06:52:00,
2013-04-26 02:53:00,46.0,41.1,30.32,West,261,0.0,0.0,83,0.00,CLR,,0.00,WeatherDisplay:10.37,2013-04-26 06:53:00,
2013-04-26 02:57:00,45.9,41.0,30.32,West,261,0.0,0.0,83,0.00,CLR,,0.00,WeatherDisplay:10.37,2013-04-26 06:57:00,
2013-04-26 02:58:00,45.9,41.0,30.32,West,261,0.0,0.0,83,0.00,CLR,,0.00,WeatherDisplay:10.37,2013-04-26 06:58:00,
2013-04-26 03:02:00,45.8,41.2,30.32,West,261,0.0,0.0,84,0.00,CLR,,0.00,WeatherDisplay:10.37,2013-04-26 07:02:00,
2013-04-26 03:03:00,45.7,40.8,30.32,West,261,0.0,0.0,83,0.00,CLR,,0.00,WeatherDisplay:10.37,2013-04-26 07:03:00,
2013-04-26 03:04:00,45.7,41.1,30.32,West,261,0.0,0.0,84,0.00,CLR,,0.00,WeatherDisplay:10.37,2013-04-26 07:04:00,
2013-04-26 03:07:00,45.6,41.4,30.31,West,261,0.0,0.0,85,0.00,CLR,,0.00,WeatherDisplay:10.37,2013-04-26 07:07:00,
2013-04-26 03:08:00,45.6,41.4,30.31,West,261,0.0,0.0,85,0.00,CLR,,0.00,WeatherDisplay:10.37,2013-04-26 07:08:00,
2013-04-26 03:09:00,45.6,41.4,30.32,West,261,0.0,0.0,85,0.00,CLR,,0.00,WeatherDisplay:10.37,2013-04-26 07:09:00,
2013-04-26 03:13:00,45.6,41.4,30.31,West,261,0.0,0.0,85,0.00,CLR,,0.00,WeatherDisplay:10.37,2013-04-26 07:13:00,
2013-04-26 03:14:00,45.5,41.3,30.31,West,261,0.0,0.0,85,0.00,CLR,,0.00,WeatherDisplay:10.37,2013-04-26 07:14:00,
2013-04-26 03:15:00,45.5,41.3,30.31,West,261,0.0,0.0,85,0.00,CLR,,0.00,WeatherDisplay:10.37,2013-04-26 07:15:00,
2013-04-26 03:18:00,45.4,41.2,30.31,West,261,0.0,0.0,85,0.00,CLR,,0.00,WeatherDisplay:10.37,2013-04-26 07:18:00,
2013-04-26 03:19:00,45.4,41.2,30.31,West,261,0.0,0.0,85,0.00,CLR,,0.00,WeatherDisplay:10.37,2013-04-26 07:19:00,
2013-04-26 03:20:00,45.4,41.2,30.31,West,261,0.0,0.0,85,0.00,CLR,,0.00,WeatherDisplay:10.37,2013-04-26 07:20:00,
2013-04-26 03:23:00,45.3,41.4,30.31,West,261,0.0,0.0,86,0.00,CLR,,0.00,WeatherDisplay:10.37,2013-04-26 07:23:00,
2013-04-26 03:24:00,45.3,41.4,30.31,West,261,0.0,0.0,86,0.00,CLR,,0.00,WeatherDisplay:10.37,2013-04-26 07:24:00,
2013-04-26 03:25:00,45.2,41.3,30.31,West,261,0.0,0.0,86,0.00,CLR,,0.00,WeatherDisplay:10.37,2013-04-26 07:25:00,
2013-04-26 03:28:00,45.0,40.8,30.31,West,261,0.0,0.0,85,0.00,CLR,,0.00,WeatherDisplay:10.37,2013-04-26 07:28:00,
2013-04-26 03:29:00,44.9,40.7,30.31,West,261,0.0,0.0,85,0.00,CLR,,0.00,WeatherDisplay:10.37,2013-04-26 07:29:00,
2013-04-26 03:30:00,44.8,40.9,30.31,West,261,0.0,0.0,86,0.00,CLR,,0.00,WeatherDisplay:10.37,2013-04-26 07:30:00,
2013-04-26 03:33:00,44.6,40.7,30.31,West,261,0.0,0.0,86,0.00,CLR,,0.00,WeatherDisplay:10.37,2013-04-26 07:33:00,
2013-04-26 03:34:00,44.6,40.7,30.31,West,261,0.0,0.0,86,0.00,CLR,,0.00,WeatherDisplay:10.37,2013-04-26 07:34:00,
2013-04-26 03:35:00,44.6,40.7,30.31,West,261,0.0,0.0,86,0.00,CLR,,0.00,WeatherDisplay:10.37,2013-04-26 07:35:00,
2013-04-26 03:36:00,44.5,40.6,30.31,West,261,0.0,0.0,86,0.00,CLR,,0.00,WeatherDisplay:10.37,2013-04-26 07:36:00,
2013-04-26 03:39:00,44.5,40.6,30.32,West,261,0.0,0.0,86,0.00,CLR,,0.00,WeatherDisplay:10.37,2013-04-26 07:39:00,
2013-04-26 03:40:00,44.5,40.6,30.31,West,261,0.0,0.0,86,0.00,CLR,,0.00,WeatherDisplay:10.37,2013-04-26 07:40:00,
2013-04-26 03:41:00,44.5,40.6,30.32,West,261,0.0,0.0,86,0.00,CLR,,0.00,WeatherDisplay:10.37,2013-04-26 07:41:00,
2013-04-26 03:44:00,44.5,40.6,30.31,West,261,0.0,0.0,86,0.00,CLR,,0.00,WeatherDisplay:10.37,2013-04-26 07:44:00,
2013-04-26 03:45:00,44.5,40.6,30.32,West,261,0.0,0.0,86,0.00,CLR,,0.00,WeatherDisplay:10.37,2013-04-26 07:45:00,
2013-04-26 03:46:00,44.5,40.6,30.31,West,261,0.0,0.0,86,0.00,CLR,,0.00,WeatherDisplay:10.37,2013-04-26 07:46:00,
2013-04-26 03:49:00,44.2,39.7,30.31,West,261,0.0,0.0,84,0.00,CLR,,0.00,WeatherDisplay:10.37,2013-04-26 07:49:00,
2013-04-26 03:51:00,44.1,39.9,30.32,West,261,0.0,0.0,85,0.00,CLR,,0.00,WeatherDisplay:10.37,2013-04-26 07:51:00,
2013-04-26 03:54:00,44.0,39.8,30.31,West,261,0.0,0.0,85,0.00,CLR,,0.00,WeatherDisplay:10.37,2013-04-26 07:54:00,
2013-04-26 03:55:00,44.0,39.8,30.31,West,261,0.0,0.0,85,0.00,CLR,,0.00,WeatherDisplay:10.37,2013-04-26 07:55:00,
2013-04-26 03:56:00,43.9,39.7,30.31,West,261,0.0,0.0,85,0.00,CLR,,0.00,WeatherDisplay:10.37,2013-04-26 07:56:00,
2013-04-26 04:00:00,43.9,39.7,30.32,West,261,0.0,0.0,85,0.00,CLR,,0.00,WeatherDisplay:10.37,2013-04-26 08:00:00,
2013-04-26 04:01:00,43.9,40.0,30.32,West,261,0.0,0.0,86,0.00,CLR,,0.00,WeatherDisplay:10.37,2013-04-26 08:01:00,
2013-04-26 04:05:00,43.7,39.8,30.32,West,261,0.0,0.0,86,0.00,CLR,,0.00,WeatherDisplay:10.37,2013-04-26 08:05:00,
2013-04-26 04:06:00,43.7,39.8,30.32,West,261,0.0,0.0,86,0.00,CLR,,0.00,WeatherDisplay:10.37,2013-04-26 08:06:00,
2013-04-26 04:07:00,43.7,39.8,30.32,West,261,0.0,0.0,86,0.00,CLR,,0.00,WeatherDisplay:10.37,2013-04-26 08:07:00,
2013-04-26 04:10:00,43.6,39.7,30.32,West,261,0.0,0.0,86,0.00,CLR,,0.00,WeatherDisplay:10.37,2013-04-26 08:10:00,
2013-04-26 04:11:00,43.6,39.7,30.32,West,261,0.0,0.0,86,0.00,CLR,,0.00,WeatherDisplay:10.37,2013-04-26 08:11:00,
2013-04-26 04:12:00,43.5,39.6,30.32,West,261,0.0,0.0,86,0.00,CLR,,0.00,WeatherDisplay:10.37,2013-04-26 08:12:00,
2013-04-26 04:15:00,43.3,39.4,30.32,West,261,0.0,0.0,86,0.00,CLR,,0.00,WeatherDisplay:10.37,2013-04-26 08:15:00,
2013-04-26 04:16:00,43.3,39.7,30.32,West,261,0.0,0.0,87,0.00,CLR,,0.00,WeatherDisplay:10.37,2013-04-26 08:16:00,
2013-04-26 04:17:00,43.3,39.7,30.32,West,261,0.0,0.0,87,0.00,CLR,,0.00,WeatherDisplay:10.37,2013-04-26 08:17:00,
2013-04-26 04:20:00,43.3,39.7,30.32,West,261,0.0,0.0,87,0.00,CLR,,0.00,WeatherDisplay:10.37,2013-04-26 08:20:00,
2013-04-26 04:21:00,43.4,39.8,30.32,West,261,0.0,0.0,87,0.00,CLR,,0.00,WeatherDisplay:10.37,2013-04-26 08:21:00,
2013-04-26 04:22:00,43.3,39.7,30.32,West,261,0.0,0.0,87,0.00,CLR,,0.00,WeatherDisplay:10.37,2013-04-26 08:22:00,
2013-04-26 04:26:00,43.2,39.3,30.32,West,261,0.0,0.0,86,0.00,CLR,,0.00,WeatherDisplay:10.37,2013-04-26 08:26:00,
2013-04-26 04:27:00,43.2,39.3,30.32,West,261,0.0,0.0,86,0.00,CLR,,0.00,WeatherDisplay:10.37,2013-04-26 08:27:00,
2013-04-26 04:31:00,43.0,39.1,30.32,West,261,0.0,0.0,86,0.00,CLR,,0.00,WeatherDisplay:10.37,2013-04-26 08:31:00,
2013-04-26 04:32:00,42.9,39.0,30.32,West,261,0.0,0.0,86,0.00,CLR,,0.00,WeatherDisplay:10.37,2013-04-26 08:32:00,
2013-04-26 04:33:00,42.9,39.0,30.32,West,261,0.0,0.0,86,0.00,CLR,,0.00,WeatherDisplay:10.37,2013-04-26 08:33:00,
2013-04-26 04:36:00,42.8,39.2,30.32,West,261,0.0,0.0,87,0.00,CLR,,0.00,WeatherDisplay:10.37,2013-04-26 08:36:00,
2013-04-26 04:37:00,42.8,39.2,30.32,West,261,0.0,0.0,87,0.00,CLR,,0.00,WeatherDisplay:10.37,2013-04-26 08:37:00,
2013-04-26 04:38:00,42.8,39.2,30.32,West,261,0.0,0.0,87,0.00,CLR,,0.00,WeatherDisplay:10.37,2013-04-26 08:38:00,
2013-04-26 04:41:00,42.7,39.1,30.32,West,261,0.0,0.0,87,0.00,CLR,,0.00,WeatherDisplay:10.37,2013-04-26 08:41:00,
2013-04-26 04:42:00,42.7,39.4,30.32,West,261,0.0,0.0,88,0.00,CLR,,0.00,WeatherDisplay:10.37,2013-04-26 08:42:00,
2013-04-26 04:43:00,42.6,39.0,30.32,West,261,0.0,0.0,87,0.00,CLR,,0.00,WeatherDisplay:10.37,2013-04-26 08:43:00,
2013-04-26 04:46:00,42.5,39.5,30.32,West,261,0.0,0.0,89,0.00,CLR,,0.00,WeatherDisplay:10.37,2013-04-26 08:46:00,
2013-04-26 04:48:00,42.5,39.5,30.32,West,261,0.0,0.0,89,0.00,CLR,,0.00,WeatherDisplay:10.37,2013-04-26 08:48:00,
2013-04-26 04:51:00,42.5,39.5,30.32,West,261,0.0,0.0,89,0.00,CLR,,0.00,WeatherDisplay:10.37,2013-04-26 08:51:00,
2013-04-26 04:53:00,42.5,39.5,30.32,West,261,0.0,0.0,89,0.00,CLR,,0.00,WeatherDisplay:10.37,2013-04-26 08:53:00,
2013-04-26 04:54:00,42.5,39.5,30.32,West,261,0.0,0.0,89,0.00,CLR,,0.00,WeatherDisplay:10.37,2013-04-26 08:54:00,
2013-04-26 04:56:00,42.4,39.7,30.32,West,261,0.0,0.0,90,0.00,CLR,,0.00,WeatherDisplay:10.37,2013-04-26 08:56:00,
2013-04-26 04:58:00,42.3,39.6,30.32,West,261,0.0,0.0,90,0.00,CLR,,0.00,WeatherDisplay:10.37,2013-04-26 08:58:00,
2013-04-26 04:59:00,42.3,39.3,30.32,West,261,0.0,0.0,89,0.00,CLR,,0.00,WeatherDisplay:10.37,2013-04-26 08:59:00,
2013-04-26 05:01:00,42.2,39.5,30.32,West,261,0.0,0.0,90,0.00,CLR,,0.00,WeatherDisplay:10.37,2013-04-26 09:01:00,
2013-04-26 05:03:00,42.2,39.5,30.32,West,261,0.0,0.0,90,0.00,CLR,,0.00,WeatherDisplay:10.37,2013-04-26 09:03:00,
2013-04-26 05:04:00,42.2,39.5,30.32,West,261,0.0,0.0,90,0.00,CLR,,0.00,WeatherDisplay:10.37,2013-04-26 09:04:00,
2013-04-26 05:06:00,42.2,39.5,30.32,West,261,0.0,0.0,90,0.00,CLR,,0.00,WeatherDisplay:10.37,2013-04-26 09:06:00,
2013-04-26 05:08:00,42.2,38.9,30.32,West,261,0.0,0.0,88,0.00,CLR,,0.00,WeatherDisplay:10.37,2013-04-26 09:08:00,
2013-04-26 05:09:00,42.2,38.9,30.32,West,261,0.0,0.0,88,0.00,CLR,,0.00,WeatherDisplay:10.37,2013-04-26 09:09:00,
2013-04-26 05:12:00,42.1,38.5,30.32,West,261,0.0,0.0,87,0.00,CLR,,0.00,WeatherDisplay:10.37,2013-04-26 09:12:00,
2013-04-26 05:14:00,42.0,38.4,30.33,West,261,0.0,0.0,87,0.00,CLR,,0.00,WeatherDisplay:10.37,2013-04-26 09:14:00,
2013-04-26 05:17:00,41.8,38.2,30.32,West,261,0.0,0.0,87,0.00,CLR,,0.00,WeatherDisplay:10.37,2013-04-26 09:17:00,
2013-04-26 05:19:00,41.7,38.1,30.33,West,261,0.0,0.0,87,0.00,CLR,,0.00,WeatherDisplay:10.37,2013-04-26 09:19:00,
2013-04-26 05:20:00,41.6,38.0,30.33,West,261,0.0,0.0,87,0.00,CLR,,0.00,WeatherDisplay:10.37,2013-04-26 09:20:00,
2013-04-26 05:22:00,41.5,38.2,30.33,West,261,0.0,0.0,88,0.00,CLR,,0.00,WeatherDisplay:10.37,2013-04-26 09:22:00,
2013-04-26 05:24:00,41.5,38.2,30.33,West,261,0.0,0.0,88,0.00,CLR,,0.00,WeatherDisplay:10.37,2013-04-26 09:24:00,
2013-04-26 05:25:00,41.4,38.4,30.33,West,261,0.0,0.0,89,0.00,CLR,,0.00,WeatherDisplay:10.37,2013-04-26 09:25:00,
2013-04-26 05:27:00,41.4,38.4,30.33,West,261,0.0,0.0,89,0.00,CLR,,0.00,WeatherDisplay:10.37,2013-04-26 09:27:00,
2013-04-26 05:29:00,41.3,38.3,30.33,West,261,0.0,0.0,89,0.00,CLR,,0.00,WeatherDisplay:10.37,2013-04-26 09:29:00,
2013-04-26 05:30:00,41.3,38.3,30.33,West,261,0.0,0.0,89,0.00,CLR,,0.00,WeatherDisplay:10.37,2013-04-26 09:30:00,
2013-04-26 05:32:00,41.3,38.0,30.33,West,261,0.0,0.0,88,0.00,CLR,,0.00,WeatherDisplay:10.37,2013-04-26 09:32:00,
2013-04-26 05:35:00,41.2,38.2,30.33,West,261,0.0,0.0,89,0.00,CLR,,0.00,WeatherDisplay:10.37,2013-04-26 09:35:00,
2013-04-26 05:38:00,41.1,38.1,30.33,West,261,0.0,0.0,89,0.00,CLR,,0.00,WeatherDisplay:10.37,2013-04-26 09:38:00,
2013-04-26 05:40:00,41.1,38.4,30.33,West,261,0.0,0.0,90,0.00,CLR,,0.00,WeatherDisplay:10.37,2013-04-26 09:40:00,
2013-04-26 05:43:00,41.0,38.3,30.33,West,261,0.0,0.0,90,0.00,CLR,,0.00,WeatherDisplay:10.37,2013-04-26 09:43:00,
2013-04-26 05:45:00,40.9,37.9,30.33,West,261,0.0,0.0,89,0.00,CLR,,0.00,WeatherDisplay:10.37,2013-04-26 09:45:00,
2013-04-26 05:48:00,40.8,37.5,30.33,West,261,0.0,0.0,88,0.00,CLR,,0.00,WeatherDisplay:10.37,2013-04-26 09:48:00,
2013-04-26 05:50:00,40.7,37.7,30.33,West,261,0.0,0.0,89,0.00,CLR,,0.00,WeatherDisplay:10.37,2013-04-26 09:50:00,
2013-04-26 05:54:00,40.7,37.7,30.33,West,261,0.0,0.0,89,0.00,CLR,,0.00,WeatherDisplay:10.37,2013-04-26 09:54:00,
2013-04-26 05:55:00,40.6,37.6,30.33,West,261,0.0,0.0,89,0.00,CLR,,0.00,WeatherDisplay:10.37,2013-04-26 09:55:00,
2013-04-26 05:56:00,40.6,37.6,30.33,West,261,0.0,0.0,89,0.00,CLR,,0.00,WeatherDisplay:10.37,2013-04-26 09:56:00,
2013-04-26 05:59:00,40.4,37.7,30.33,West,261,0.0,0.0,90,0.00,CLR,,0.00,WeatherDisplay:10.37,2013-04-26 09:59:00,
2013-04-26 06:00:00,40.3,37.6,30.33,West,261,0.0,0.0,90,0.00,CLR,,0.00,WeatherDisplay:10.37,2013-04-26 10:00:00,
2013-04-26 06:01:00,40.3,37.6,30.33,West,261,0.0,0.0,90,0.00,CLR,,0.00,WeatherDisplay:10.37,2013-04-26 10:01:00,
2013-04-26 06:04:00,40.1,37.7,30.33,West,261,1.2,3.5,91,0.00,CLR,,0.00,WeatherDisplay:10.37,2013-04-26 10:04:00,
2013-04-26 06:05:00,39.9,37.5,30.33,West,261,0.5,3.5,91,0.00,CLR,,0.00,WeatherDisplay:10.37,2013-04-26 10:05:00,
2013-04-26 06:06:00,39.9,37.8,30.33,West,261,0.0,1.1,92,0.00,CLR,,0.00,WeatherDisplay:10.37,2013-04-26 10:06:00,
2013-04-26 06:09:00,39.9,37.8,30.33,West,261,0.0,0.0,92,0.00,CLR,,0.00,WeatherDisplay:10.37,2013-04-26 10:09:00,
2013-04-26 06:10:00,39.9,37.8,30.33,West,261,0.0,0.0,92,0.00,CLR,,0.00,WeatherDisplay:10.37,2013-04-26 10:10:00,
2013-04-26 06:11:00,40.0,37.9,30.33,West,261,0.0,0.0,92,0.00,CLR,,0.00,WeatherDisplay:10.37,2013-04-26 10:11:00,
2013-04-26 06:12:00,40.0,37.9,30.33,West,261,0.0,0.0,92,0.00,CLR,,0.00,WeatherDisplay:10.37,2013-04-26 10:12:00,
2013-04-26 06:14:00,40.0,37.6,30.33,West,261,0.0,0.0,91,0.00,CLR,,0.00,WeatherDisplay:10.37,2013-04-26 10:14:00,
2013-04-26 06:16:00,40.0,37.6,30.33,West,261,0.0,0.0,91,0.00,CLR,,0.00,WeatherDisplay:10.37,2013-04-26 10:16:00,
2013-04-26 06:17:00,40.0,37.6,30.34,West,261,0.0,0.0,91,0.00,CLR,,0.00,WeatherDisplay:10.37,2013-04-26 10:17:00,
2013-04-26 06:19:00,40.0,37.6,30.34,West,261,0.0,0.0,91,0.00,CLR,,0.00,WeatherDisplay:10.37,2013-04-26 10:19:00,
2013-04-26 06:21:00,40.0,37.9,30.33,West,261,0.0,0.0,92,0.00,CLR,,0.00,WeatherDisplay:10.37,2013-04-26 10:21:00,
2013-04-26 06:22:00,40.0,37.9,30.34,West,261,0.0,0.0,92,0.00,CLR,,0.00,WeatherDisplay:10.37,2013-04-26 10:22:00,
2013-04-26 06:23:00,40.0,37.9,30.33,West,261,0.0,0.0,92,0.00,CLR,,0.00,WeatherDisplay:10.37,2013-04-26 10:23:00,
2013-04-26 06:24:00,40.0,37.9,30.34,West,261,0.0,0.0,92,0.00,CLR,,0.00,WeatherDisplay:10.37,2013-04-26 10:24:00,
2013-04-26 06:26:00,39.9,37.5,30.34,West,261,0.0,0.0,91,0.00,CLR,,0.00,WeatherDisplay:10.37,2013-04-26 10:26:00,
2013-04-26 06:27:00,39.8,37.4,30.34,West,261,0.0,0.0,91,0.00,CLR,,0.00,WeatherDisplay:10.37,2013-04-26 10:27:00,
2013-04-26 06:28:00,39.8,37.4,30.34,West,261,0.0,0.0,91,0.00,CLR,,0.00,WeatherDisplay:10.37,2013-04-26 10:28:00,
2013-04-26 06:29:00,39.7,37.3,30.34,West,261,0.0,0.0,91,0.00,CLR,,0.00,WeatherDisplay:10.37,2013-04-26 10:29:00,
2013-04-26 06:31:00,39.7,37.6,30.34,West,261,0.0,0.0,92,0.00,CLR,,0.00,WeatherDisplay:10.37,2013-04-26 10:31:00,
2013-04-26 06:32:00,39.7,37.3,30.34,West,261,0.0,0.0,91,0.00,CLR,,0.00,WeatherDisplay:10.37,2013-04-26 10:32:00,
2013-04-26 06:33:00,39.7,37.3,30.34,West,261,0.0,0.0,91,0.00,CLR,,0.00,WeatherDisplay:10.37,2013-04-26 10:33:00,
2013-04-26 06:34:00,39.6,37.5,30.34,West,261,0.0,0.0,92,0.00,CLR,,0.00,WeatherDisplay:10.37,2013-04-26 10:34:00,
2013-04-26 06:36:00,39.6,36.9,30.34,West,261,0.0,0.0,90,0.00,CLR,,0.00,WeatherDisplay:10.37,2013-04-26 10:36:00,
2013-04-26 06:37:00,39.6,37.2,30.34,West,261,0.0,0.0,91,0.00,CLR,,0.00,WeatherDisplay:10.37,2013-04-26 10:37:00,
2013-04-26 06:38:00,39.6,36.9,30.34,West,261,0.0,0.0,90,0.00,CLR,,0.00,WeatherDisplay:10.37,2013-04-26 10:38:00,
2013-04-26 06:39:00,39.5,37.1,30.34,West,261,0.0,0.0,91,0.00,CLR,,0.00,WeatherDisplay:10.37,2013-04-26 10:39:00,
2013-04-26 06:41:00,39.5,37.1,30.34,West,261,0.0,0.0,91,0.00,CLR,,0.00,WeatherDisplay:10.37,2013-04-26 10:41:00,
2013-04-26 06:42:00,39.5,37.1,30.34,West,261,0.0,0.0,91,0.00,CLR,,0.00,WeatherDisplay:10.37,2013-04-26 10:42:00,
2013-04-26 06:44:00,39.5,37.4,30.35,West,261,0.0,0.0,92,0.00,CLR,,0.00,WeatherDisplay:10.37,2013-04-26 10:44:00,
2013-04-26 06:46:00,39.5,37.6,30.35,West,261,0.0,0.0,93,0.00,CLR,,0.00,WeatherDisplay:10.37,2013-04-26 10:46:00,
2013-04-26 06:47:00,39.5,37.6,30.35,West,261,0.0,0.0,93,0.00,CLR,,0.00,WeatherDisplay:10.37,2013-04-26 10:47:00,
2013-04-26 06:49:00,39.5,37.6,30.34,West,261,0.0,0.0,93,0.00,CLR,,0.00,WeatherDisplay:10.37,2013-04-26 10:49:00,
2013-04-26 06:52:00,39.5,37.4,30.34,West,261,0.0,0.0,92,0.00,CLR,,0.00,WeatherDisplay:10.37,2013-04-26 10:52:00,
2013-04-26 06:53:00,39.4,37.0,30.34,West,261,0.0,0.0,91,0.00,CLR,,0.00,WeatherDisplay:10.37,2013-04-26 10:53:00,
2013-04-26 06:54:00,39.4,37.0,30.35,West,261,0.0,0.0,91,0.00,CLR,,0.00,WeatherDisplay:10.37,2013-04-26 10:54:00,
2013-04-26 06:55:00,39.3,36.9,30.35,West,261,0.0,0.0,91,0.00,CLR,,0.00,WeatherDisplay:10.37,2013-04-26 10:55:00,
2013-04-26 06:57:00,39.3,36.6,30.35,West,261,0.0,0.0,90,0.00,CLR,,0.00,WeatherDisplay:10.37,2013-04-26 10:57:00,
2013-04-26 06:58:00,39.3,36.6,30.35,West,261,0.0,0.0,90,0.00,CLR,,0.00,WeatherDisplay:10.37,2013-04-26 10:58:00,
2013-04-26 06:59:00,39.2,36.8,30.35,West,261,0.0,0.0,91,0.00,CLR,,0.00,WeatherDisplay:10.37,2013-04-26 10:59:00,
2013-04-26 07:00:00,39.2,36.8,30.35,West,261,0.0,0.0,91,0.00,CLR,,0.00,WeatherDisplay:10.37,2013-04-26 11:00:00,
2013-04-26 07:02:00,39.2,37.3,30.35,West,261,0.0,0.0,93,0.00,SCT,,0.00,WeatherDisplay:10.37,2013-04-26 11:02:00,
2013-04-26 07:03:00,39.2,37.3,30.35,West,261,0.0,0.0,93,0.00,SCT,,0.00,WeatherDisplay:10.37,2013-04-26 11:03:00,
2013-04-26 07:05:00,39.3,37.2,30.35,West,261,0.0,0.0,92,0.00,SCT,,0.00,WeatherDisplay:10.37,2013-04-26 11:05:00,
2013-04-26 07:07:00,39.3,36.9,30.35,West,261,0.0,0.0,91,0.00,SCT,,0.00,WeatherDisplay:10.37,2013-04-26 11:07:00,
2013-04-26 07:08:00,39.3,36.9,30.35,West,261,0.0,0.0,91,0.00,SCT,,0.00,WeatherDisplay:10.37,2013-04-26 11:08:00,
2013-04-26 07:10:00,39.3,37.2,30.35,West,261,0.0,0.0,92,0.00,SCT,,0.00,WeatherDisplay:10.37,2013-04-26 11:10:00,
2013-04-26 07:11:00,39.3,36.9,30.35,West,261,0.0,0.0,91,0.00,SCT,,0.00,WeatherDisplay:10.37,2013-04-26 11:11:00,
2013-04-26 07:12:00,39.4,37.0,30.35,West,261,0.0,0.0,91,0.00,SCT,,0.00,WeatherDisplay:10.37,2013-04-26 11:12:00,
2013-04-26 07:13:00,39.4,37.0,30.35,West,261,0.0,0.0,91,0.00,SCT,,0.00,WeatherDisplay:10.37,2013-04-26 11:13:00,
2013-04-26 07:15:00,39.4,37.0,30.35,West,261,0.0,0.0,91,0.00,SCT,,0.00,WeatherDisplay:10.37,2013-04-26 11:15:00,
2013-04-26 07:16:00,39.4,37.0,30.35,West,261,0.0,0.0,91,0.00,SCT,,0.00,WeatherDisplay:10.37,2013-04-26 11:16:00,
2013-04-26 07:17:00,39.5,37.4,30.35,West,261,0.0,0.0,92,0.00,SCT,,0.00,WeatherDisplay:10.37,2013-04-26 11:17:00,
2013-04-26 07:18:00,39.5,37.1,30.35,West,261,0.0,0.0,91,0.00,SCT,,0.00,WeatherDisplay:10.37,2013-04-26 11:18:00,
2013-04-26 07:19:00,39.5,37.4,30.35,West,261,0.0,0.0,92,0.00,SCT,,0.00,WeatherDisplay:10.37,2013-04-26 11:19:00,
2013-04-26 07:20:00,39.5,37.4,30.35,West,261,0.0,0.0,92,0.00,SCT,,0.00,WeatherDisplay:10.37,2013-04-26 11:20:00,
2013-04-26 07:21:00,39.5,37.4,30.35,West,261,0.0,0.0,92,0.00,SCT,,0.00,WeatherDisplay:10.37,2013-04-26 11:21:00,
2013-04-26 07:23:00,39.5,37.4,30.35,West,261,0.0,0.0,92,0.00,SCT,,0.00,WeatherDisplay:10.37,2013-04-26 11:23:00,
2013-04-26 07:24:00,39.6,37.5,30.35,West,261,0.0,0.0,92,0.00,SCT,,0.00,WeatherDisplay:10.37,2013-04-26 11:24:00,
2013-04-26 07:25:00,39.6,37.5,30.35,West,261,0.0,0.0,92,0.00,SCT,,0.00,WeatherDisplay:10.37,2013-04-26 11:25:00,
2013-04-26 07:26:00,39.6,37.5,30.35,West,261,0.0,0.0,92,0.00,SCT,,0.00,WeatherDisplay:10.37,2013-04-26 11:26:00,
2013-04-26 07:28:00,39.6,37.5,30.35,West,261,0.0,0.0,92,0.00,SCT,,0.00,WeatherDisplay:10.37,2013-04-26 11:28:00,
2013-04-26 07:29:00,39.7,37.8,30.35,West,261,0.0,0.0,93,0.00,SCT,,0.00,WeatherDisplay:10.37,2013-04-26 11:29:00,
2013-04-26 07:30:00,39.7,37.6,30.35,West,261,0.0,0.0,92,0.00,SCT,,0.00,WeatherDisplay:10.37,2013-04-26 11:30:00,
2013-04-26 07:31:00,39.7,37.8,30.36,West,261,0.0,0.0,93,0.00,SCT,,0.00,WeatherDisplay:10.37,2013-04-26 11:31:00,
2013-04-26 07:33:00,39.8,37.9,30.36,West,261,0.0,0.0,93,0.00,SCT,,0.00,WeatherDisplay:10.37,2013-04-26 11:33:00,
2013-04-26 07:34:00,39.8,37.9,30.36,West,261,0.0,0.0,93,0.00,SCT,,0.00,WeatherDisplay:10.37,2013-04-26 11:34:00,
2013-04-26 07:35:00,39.9,38.0,30.36,West,261,0.0,0.0,93,0.00,SCT,,0.00,WeatherDisplay:10.37,2013-04-26 11:35:00,
2013-04-26 07:36:00,39.9,38.0,30.36,West,261,0.0,0.0,93,0.00,SCT,,0.00,WeatherDisplay:10.37,2013-04-26 11:36:00,
2013-04-26 07:38:00,40.0,38.1,30.36,West,261,0.0,0.0,93,0.00,SCT,,0.00,WeatherDisplay:10.37,2013-04-26 11:38:00,
2013-04-26 07:39:00,40.0,38.4,30.36,West,261,0.0,0.0,94,0.00,SCT,,0.00,WeatherDisplay:10.37,2013-04-26 11:39:00,
2013-04-26 07:41:00,40.1,38.2,30.36,West,261,0.0,0.0,93,0.00,SCT,,0.00,WeatherDisplay:10.37,2013-04-26 11:41:00,
2013-04-26 07:42:00,40.1,38.5,30.36,West,261,0.0,0.0,94,0.00,SCT,,0.00,WeatherDisplay:10.37,2013-04-26 11:42:00,
2013-04-26 07:43:00,40.2,38.6,30.36,West,261,0.0,0.0,94,0.00,SCT,,0.00,WeatherDisplay:10.37,2013-04-26 11:43:00,
2013-04-26 07:44:00,40.2,38.6,30.36,West,261,0.0,0.0,94,0.00,SCT,,0.00,WeatherDisplay:10.37,2013-04-26 11:44:00,
2013-04-26 07:46:00,40.3,38.7,30.37,West,261,0.0,0.0,94,0.00,SCT,,0.00,WeatherDisplay:10.37,2013-04-26 11:46:00,
2013-04-26 07:47:00,40.4,38.8,30.37,West,261,0.0,0.0,94,0.00,SCT,,0.00,WeatherDisplay:10.37,2013-04-26 11:47:00,
2013-04-26 07:49:00,40.5,38.6,30.36,West,262,0.0,0.0,93,0.00,SCT,,0.00,WeatherDisplay:10.37,2013-04-26 11:49:00,
2013-04-26 07:50:00,40.6,38.7,30.37,West,261,0.2,0.0,93,0.00,SCT,,0.00,WeatherDisplay:10.37,2013-04-26 11:50:00,
2013-04-26 07:51:00,40.8,38.9,30.37,West,261,0.3,2.3,93,0.00,SCT,,0.00,WeatherDisplay:10.37,2013-04-26 11:51:00,
2013-04-26 07:52:00,40.8,38.7,30.37,West,261,0.2,2.3,92,0.00,SCT,,0.00,WeatherDisplay:10.37,2013-04-26 11:52:00,
2013-04-26 07:54:00,41.0,39.1,30.37,West,261,0.0,0.0,93,0.00,SCT,,0.00,WeatherDisplay:10.37,2013-04-26 11:54:00,
2013-04-26 07:55:00,41.0,38.9,30.37,West,261,0.1,1.0,92,0.00,SCT,,0.00,WeatherDisplay:10.37,2013-04-26 11:55:00,
2013-04-26 07:57:00,41.2,39.1,30.37,NNW,348,0.4,3.5,92,0.00,SCT,,0.00,WeatherDisplay:10.37,2013-04-26 11:57:00,
2013-04-26 07:59:00,41.3,39.2,30.37,NE,35,0.6,2.3,92,0.00,SCT,,0.00,WeatherDisplay:10.37,2013-04-26 11:59:00,
2013-04-26 08:00:00,41.3,39.2,30.37,NE,35,0.6,2.3,92,0.00,SCT,,0.00,WeatherDisplay:10.37,2013-04-26 12:00:00,
2013-04-26 08:02:00,41.3,39.2,30.37,NE,35,0.0,0.0,92,0.00,SCT,,0.00,WeatherDisplay:10.37,2013-04-26 12:02:00,
2013-04-26 08:03:00,41.4,39.3,30.37,NE,35,0.0,0.0,92,0.00,SCT,,0.00,WeatherDisplay:10.37,2013-04-26 12:03:00,
2013-04-26 08:04:00,41.4,39.3,30.37,NE,35,0.0,0.0,92,0.00,SCT,,0.00,WeatherDisplay:10.37,2013-04-26 12:04:00,
2013-04-26 08:05:00,41.4,39.3,30.37,NE,35,0.0,0.0,92,0.00,SCT,,0.00,WeatherDisplay:10.37,2013-04-26 12:05:00,
2013-04-26 08:07:00,41.5,39.3,30.37,NE,39,0.1,1.1,92,0.00,SCT,,0.00,WeatherDisplay:10.37,2013-04-26 12:07:00,
2013-04-26 08:08:00,41.5,39.1,30.37,NE,39,0.0,1.0,91,0.00,SCT,,0.00,WeatherDisplay:10.37,2013-04-26 12:08:00,
2013-04-26 08:10:00,41.6,39.4,30.37,NE,39,0.0,0.0,92,0.00,SCT,,0.00,WeatherDisplay:10.37,2013-04-26 12:10:00,
2013-04-26 08:12:00,41.6,39.7,30.37,NE,39,0.0,0.0,93,0.00,SCT,,0.00,WeatherDisplay:10.37,2013-04-26 12:12:00,
2013-04-26 08:13:00,41.7,39.5,30.37,NE,39,0.0,0.0,92,0.00,SCT,,0.00,WeatherDisplay:10.37,2013-04-26 12:13:00,
2013-04-26 08:15:00,41.8,39.6,30.37,NE,39,0.0,0.0,92,0.00,SCT,,0.00,WeatherDisplay:10.37,2013-04-26 12:15:00,
2013-04-26 08:17:00,42.0,39.8,30.37,NE,39,0.0,1.1,92,0.00,SCT,,0.00,WeatherDisplay:10.37,2013-04-26 12:17:00,
2013-04-26 08:18:00,42.0,39.8,30.37,NE,39,0.0,0.0,92,0.00,SCT,,0.00,WeatherDisplay:10.37,2013-04-26 12:18:00,
2013-04-26 08:20:00,42.1,39.9,30.37,NE,39,0.0,0.0,92,0.00,SCT,,0.00,WeatherDisplay:10.37,2013-04-26 12:20:00,
2013-04-26 08:21:00,42.1,39.9,30.37,NE,39,0.0,0.0,92,0.00,SCT,,0.00,WeatherDisplay:10.37,2013-04-26 12:21:00,
2013-04-26 08:22:00,42.2,40.0,30.37,NE,39,0.0,1.1,92,0.00,SCT,,0.00,WeatherDisplay:10.37,2013-04-26 12:22:00,
2013-04-26 08:23:00,42.2,40.0,30.37,NE,39,0.0,1.1,92,0.00,SCT,,0.00,WeatherDisplay:10.37,2013-04-26 12:23:00,
2013-04-26 08:25:00,42.4,40.5,30.37,NE,40,0.0,1.0,93,0.00,SCT,,0.00,WeatherDisplay:10.37,2013-04-26 12:25:00,
2013-04-26 08:26:00,42.4,40.5,30.37,NE,39,0.0,0.0,93,0.00,SCT,,0.00,WeatherDisplay:10.37,2013-04-26 12:26:00,
2013-04-26 08:28:00,42.5,41.2,30.37,NE,39,0.0,0.0,95,0.00,SCT,,0.00,WeatherDisplay:10.37,2013-04-26 12:28:00,
2013-04-26 08:31:00,42.7,40.8,30.37,NE,40,0.1,1.1,93,0.00,SCT,,0.00,WeatherDisplay:10.37,2013-04-26 12:31:00,
2013-04-26 08:33:00,43.0,40.8,30.37,NE,40,0.0,0.0,92,0.00,SCT,,0.00,WeatherDisplay:10.37,2013-04-26 12:33:00,
2013-04-26 08:34:00,43.0,41.1,30.37,NE,40,0.0,1.1,93,0.00,SCT,,0.00,WeatherDisplay:10.37,2013-04-26 12:34:00,
2013-04-26 08:36:00,43.3,41.1,30.37,NE,40,0.1,1.1,92,0.00,SCT,,0.00,WeatherDisplay:10.37,2013-04-26 12:36:00,
2013-04-26 08:38:00,43.5,41.3,30.37,NE,39,0.5,2.3,92,0.00,SCT,,0.00,WeatherDisplay:10.37,2013-04-26 12:38:00,
2013-04-26 08:39:00,43.6,41.7,30.37,NE,40,0.6,3.5,93,0.00,SCT,,0.00,WeatherDisplay:10.37,2013-04-26 12:39:00,
2013-04-26 08:41:00,43.7,41.5,30.37,NE,40,0.0,1.1,92,0.00,SCT,,0.00,WeatherDisplay:10.37,2013-04-26 12:41:00,
2013-04-26 08:43:00,43.9,41.4,30.37,NE,40,0.0,0.0,91,0.00,SCT,,0.00,WeatherDisplay:10.37,2013-04-26 12:43:00,
2013-04-26 08:44:00,43.9,41.7,30.37,NE,40,0.1,1.1,92,0.00,SCT,,0.00,WeatherDisplay:10.37,2013-04-26 12:44:00,
2013-04-26 08:46:00,44.0,41.8,30.37,NE,39,0.0,1.1,92,0.00,SCT,,0.00,WeatherDisplay:10.37,2013-04-26 12:46:00,
2013-04-26 08:47:00,44.0,42.4,30.37,NE,40,0.4,2.0,94,0.00,SCT,,0.00,WeatherDisplay:10.37,2013-04-26 12:47:00,
2013-04-26 08:48:00,44.2,42.0,30.37,NE,40,0.1,1.1,92,0.00,SCT,,0.00,WeatherDisplay:10.37,2013-04-26 12:48:00,
2013-04-26 08:49:00,44.2,42.0,30.37,NE,40,0.1,1.1,92,0.00,SCT,,0.00,WeatherDisplay:10.37,2013-04-26 12:49:00,
2013-04-26 08:51:00,44.4,42.5,30.37,NE,39,0.6,2.3,93,0.00,SCT,,0.00,WeatherDisplay:10.37,2013-04-26 12:51:00,
2013-04-26 08:52:00,44.5,42.6,30.37,NE,40,0.1,2.3,93,0.00,SCT,,0.00,WeatherDisplay:10.37,2013-04-26 12:52:00,
2013-04-26 08:54:00,44.7,42.8,30.37,NE,40,0.1,3.5,93,0.00,SCT,,0.00,WeatherDisplay:10.37,2013-04-26 12:54:00,
2013-04-26 08:56:00,45.1,42.9,30.37,NE,40,0.7,3.5,92,0.00,SCT,,0.00,WeatherDisplay:10.37,2013-04-26 12:56:00,
2013-04-26 08:57:00,45.2,43.0,30.37,NE,40,0.5,3.5,92,0.00,SCT,,0.00,WeatherDisplay:10.37,2013-04-26 12:57:00,
2013-04-26 08:59:00,45.4,42.9,30.37,NE,43,0.3,3.5,91,0.00,SCT,,0.00,WeatherDisplay:10.37,2013-04-26 12:59:00,
2013-04-26 09:00:00,45.5,43.3,30.37,NE,43,0.5,2.3,92,0.00,SCT,,0.00,WeatherDisplay:10.37,2013-04-26 13:00:00,
2013-04-26 09:01:00,45.7,43.5,30.37,NE,44,0.2,3.5,92,0.00,FEW,,0.00,WeatherDisplay:10.37,2013-04-26 13:01:00,
2013-04-26 09:02:00,45.8,43.3,30.36,NE,45,0.9,2.3,91,0.00,FEW,,0.00,WeatherDisplay:10.37,2013-04-26 13:02:00,
2013-04-26 09:05:00,46.1,43.3,30.36,NE,45,1.4,3.5,90,0.00,FEW,,0.00,WeatherDisplay:10.37,2013-04-26 13:05:00,
2013-04-26 09:06:00,46.2,43.4,30.36,NE,45,0.3,3.5,90,0.00,FEW,,0.00,WeatherDisplay:10.37,2013-04-26 13:06:00,
2013-04-26 09:07:00,46.3,43.5,30.36,NE,45,0.2,2.3,90,0.00,FEW,,0.00,WeatherDisplay:10.37,2013-04-26 13:07:00,
2013-04-26 09:08:00,46.3,43.2,30.36,NE,45,0.3,2.3,89,0.00,FEW,,0.00,WeatherDisplay:10.37,2013-04-26 13:08:00,
2013-04-26 09:10:00,46.4,43.3,30.36,NE,45,0.0,1.1,89,0.00,FEW,,0.00,WeatherDisplay:10.37,2013-04-26 13:10:00,
2013-04-26 09:11:00,46.5,43.1,30.36,NE,45,0.5,0.0,88,0.00,FEW,,0.00,WeatherDisplay:10.37,2013-04-26 13:11:00,
2013-04-26 09:12:00,46.5,43.4,30.36,NE,45,0.3,3.5,89,0.00,FEW,,0.00,WeatherDisplay:10.37,2013-04-26 13:12:00,
2013-04-26 09:13:00,46.6,43.2,30.36,NE,45,0.0,2.3,88,0.00,FEW,,0.00,WeatherDisplay:10.37,2013-04-26 13:13:00,
2013-04-26 09:15:00,46.7,43.6,30.36,NE,45,0.1,1.1,89,0.00,FEW,,0.00,WeatherDisplay:10.37,2013-04-26 13:15:00,
2013-04-26 09:16:00,46.8,43.1,30.36,NE,45,0.0,1.1,87,0.00,FEW,,0.00,WeatherDisplay:10.37,2013-04-26 13:16:00,
2013-04-26 09:17:00,47.0,43.3,30.36,NE,45,1.2,3.5,87,0.00,FEW,,0.00,WeatherDisplay:10.37,2013-04-26 13:17:00,
2013-04-26 09:18:00,47.1,43.4,30.36,NE,45,0.0,3.5,87,0.00,FEW,,0.00,WeatherDisplay:10.37,2013-04-26 13:18:00,
2013-04-26 09:20:00,47.3,43.9,30.36,NE,45,0.8,3.5,88,0.00,FEW,,0.00,WeatherDisplay:10.37,2013-04-26 13:20:00,
2013-04-26 09:21:00,47.5,44.4,30.36,NE,45,0.0,0.0,89,0.00,FEW,,0.00,WeatherDisplay:10.37,2013-04-26 13:21:00,
2013-04-26 09:22:00,47.6,44.5,30.36,NE,46,0.0,0.0,89,0.00,FEW,,0.00,WeatherDisplay:10.37,2013-04-26 13:22:00,
2013-04-26 09:23:00,47.7,44.3,30.36,NE,45,0.0,0.0,88,0.00,FEW,,0.00,WeatherDisplay:10.37,2013-04-26 13:23:00,
2013-04-26 09:25:00,48.0,44.3,30.36,NE,45,0.0,0.0,87,0.00,FEW,,0.00,WeatherDisplay:10.37,2013-04-26 13:25:00,
2013-04-26 09:27:00,48.2,44.8,30.36,NE,45,0.0,0.0,88,0.00,FEW,,0.00,WeatherDisplay:10.37,2013-04-26 13:27:00,
2013-04-26 09:28:00,48.4,44.4,30.36,NE,45,0.0,0.0,86,0.00,FEW,,0.00,WeatherDisplay:10.37,2013-04-26 13:28:00,
2013-04-26 09:30:00,48.7,45.3,30.36,NE,46,0.0,3.5,88,0.00,FEW,,0.00,WeatherDisplay:10.37,2013-04-26 13:30:00,
2013-04-26 09:32:00,48.9,45.2,30.36,NE,46,0.0,1.1,87,0.00,FEW,,0.00,WeatherDisplay:10.37,2013-04-26 13:32:00,
2013-04-26 09:33:00,49.0,45.0,30.36,NE,46,0.3,2.3,86,0.00,FEW,,0.00,WeatherDisplay:10.37,2013-04-26 13:33:00,
2013-04-26 09:35:00,49.2,45.2,30.36,NE,46,1.3,4.0,86,0.00,FEW,,0.00,WeatherDisplay:10.37,2013-04-26 13:35:00,
2013-04-26 09:37:00,49.5,45.2,30.36,NE,46,1.2,4.6,85,0.00,FEW,,0.00,WeatherDisplay:10.37,2013-04-26 13:37:00,
2013-04-26 09:38:00,49.6,45.3,30.36,NE,47,1.9,3.5,85,0.00,FEW,,0.00,WeatherDisplay:10.37,2013-04-26 13:38:00,
2013-04-26 09:40:00,49.7,44.7,30.35,North,11,1.2,3.0,83,0.00,FEW,,0.00,WeatherDisplay:10.37,2013-04-26 13:40:00,
2013-04-26 09:42:00,49.9,44.9,30.35,ENE,59,0.6,3.5,83,0.00,FEW,,0.00,WeatherDisplay:10.37,2013-04-26 13:42:00,
2013-04-26 09:43:00,50.0,45.0,30.35,ENE,61,0.0,2.3,83,0.00,FEW,,0.00,WeatherDisplay:10.37,2013-04-26 13:43:00,
2013-04-26 09:45:00,50.2,45.2,30.36,NE,50,0.2,3.5,83,0.00,FEW,,0.00,WeatherDisplay:10.37,2013-04-26 13:45:00,
2013-04-26 09:47:00,50.3,44.7,30.36,North,9,0.1,3.5,81,0.00,FEW,,0.00,WeatherDisplay:10.37,2013-04-26 13:47:00,
2013-04-26 09:48:00,50.5,44.2,30.36,North,9,0.4,2.3,79,0.00,FEW,,0.00,WeatherDisplay:10.37,2013-04-26 13:48:00,
2013-04-26 09:50:00,50.6,45.0,30.35,NNE,30,0.5,2.3,81,0.00,FEW,,0.00,WeatherDisplay:10.37,2013-04-26 13:50:00,
2013-04-26 09:51:00,50.7,45.4,30.35,NNE,30,0.1,1.1,82,0.00,FEW,,0.00,WeatherDisplay:10.37,2013-04-26 13:51:00,
2013-04-26 09:52:00,50.8,45.5,30.35,NNE,30,0.0,2.3,82,0.00,FEW,,0.00,WeatherDisplay:10.37,2013-04-26 13:52:00,
2013-04-26 09:54:00,50.9,45.6,30.35,NNE,30,0.0,0.0,82,0.00,FEW,,0.00,WeatherDisplay:10.37,2013-04-26 13:54:00,
2013-04-26 09:55:00,51.1,46.4,30.35,NNE,30,0.0,1.1,84,0.00,FEW,,0.00,WeatherDisplay:10.37,2013-04-26 13:55:00,
2013-04-26 09:56:00,51.2,46.2,30.35,NE,41,1.2,5.0,83,0.00,FEW,,0.00,WeatherDisplay:10.37,2013-04-26 13:56:00,
2013-04-26 09:57:00,51.3,46.0,30.35,NE,52,3.2,4.6,82,0.00,FEW,,0.00,WeatherDisplay:10.37,2013-04-26 13:57:00,
2013-04-26 09:59:00,51.4,45.4,30.35,NE,53,1.5,6.0,80,0.00,FEW,,0.00,WeatherDisplay:10.37,2013-04-26 13:59:00,
2013-04-26 10:00:00,51.7,45.7,30.34,ESE,114,5.9,8.1,80,0.00,FEW,,0.00,WeatherDisplay:10.37,2013-04-26 14:00:00,
2013-04-26 10:01:00,52.0,45.7,30.34,ESE,108,3.6,5.8,79,0.00,FEW,,0.00,WeatherDisplay:10.37,2013-04-26 14:01:00,
2013-04-26 10:02:00,52.2,46.2,30.34,East,87,1.4,8.0,80,0.00,FEW,,0.00,WeatherDisplay:10.37,2013-04-26 14:02:00,
2013-04-26 10:04:00,52.6,46.3,30.34,East,80,3.6,8.1,79,0.00,FEW,,0.00,WeatherDisplay:10.37,2013-04-26 14:04:00,
2013-04-26 10:05:00,52.9,46.6,30.34,SE,140,4.5,9.2,79,0.00,FEW,,0.00,WeatherDisplay:10.37,2013-04-26 14:05:00,
2013-04-26 10:06:00,53.2,46.5,30.34,East,90,2.7,6.9,78,0.00,FEW,,0.00,WeatherDisplay:10.37,2013-04-26 14:06:00,
2013-04-26 10:07:00,53.4,46.4,30.34,ESE,104,2.4,5.8,77,0.00,FEW,,0.00,WeatherDisplay:10.37,2013-04-26 14:07:00,
2013-04-26 10:08:00,53.4,46.4,30.34,ESE,104,2.4,5.8,77,0.00,FEW,,0.00,WeatherDisplay:10.37,2013-04-26 14:08:00,
2013-04-26 10:09:00,53.7,46.7,30.34,ESE,112,5.3,8.0,77,0.00,FEW,,0.00,WeatherDisplay:10.37,2013-04-26 14:09:00,
2013-04-26 10:10:00,54.1,46.7,30.34,East,88,5.2,9.2,76,0.00,FEW,,0.00,WeatherDisplay:10.37,2013-04-26 14:10:00,
2013-04-26 10:12:00,54.3,45.8,30.34,East,99,8.9,11.5,73,0.00,FEW,,0.00,WeatherDisplay:10.37,2013-04-26 14:12:00,
2013-04-26 10:13:00,54.6,45.4,30.34,East,91,6.9,10.0,71,0.00,FEW,,0.00,WeatherDisplay:10.37,2013-04-26 14:13:00,
2013-04-26 10:15:00,55.1,45.1,30.34,East,98,4.9,10.4,69,0.00,FEW,,0.00,WeatherDisplay:10.37,2013-04-26 14:15:00,
2013-04-26 10:16:00,55.4,45.4,30.35,East,100,3.0,5.8,69,0.00,FEW,,0.00,WeatherDisplay:10.37,2013-04-26 14:16:00,
2013-04-26 10:17:00,55.5,45.9,30.34,East,88,4.8,5.8,70,0.00,FEW,,0.00,WeatherDisplay:10.37,2013-04-26 14:17:00,
2013-04-26 10:18:00,55.6,45.2,30.34,ENE,77,6.9,9.2,68,0.00,FEW,,0.00,WeatherDisplay:10.37,2013-04-26 14:18:00,
2013-04-26 10:20:00,55.8,45.4,30.55,East,100,3.9,8.1,68,0.00,FEW,,0.00,WeatherDisplay:10.37,2013-04-26 14:20:00,
2013-04-26 10:21:00,56.0,44.8,30.35,ENE,67,8.0,11.5,66,0.00,FEW,,0.00,WeatherDisplay:10.37,2013-04-26 14:21:00,
2013-04-26 10:22:00,56.2,44.6,30.35,East,93,5.6,10.4,65,0.00,FEW,,0.00,WeatherDisplay:10.37,2013-04-26 14:22:00,
2013-04-26 10:23:00,56.3,44.3,30.35,ESE,103,6.1,7.0,64,0.00,FEW,,0.00,WeatherDisplay:10.37,2013-04-26 14:23:00,
2013-04-26 10:25:00,56.5,45.7,30.35,East,98,3.4,9.2,67,0.00,FEW,,0.00,WeatherDisplay:10.37,2013-04-26 14:25:00,
2013-04-26 10:26:00,56.6,44.6,30.35,East,94,3.2,6.0,64,0.00,FEW,,0.00,WeatherDisplay:10.37,2013-04-26 14:26:00,
2013-04-26 10:28:00,56.7,44.7,30.35,East,91,3.8,9.2,64,0.00,FEW,,0.00,WeatherDisplay:10.37,2013-04-26 14:28:00,
2013-04-26 10:29:00,56.8,44.7,30.35,ENE,68,2.7,4.6,64,0.00,FEW,,0.00,WeatherDisplay:10.37,2013-04-26 14:29:00,
2013-04-26 10:30:00,56.9,44.4,30.35,ENE,69,1.4,4.6,63,0.00,FEW,,0.00,WeatherDisplay:10.37,2013-04-26 14:30:00,
2013-04-26 10:31:00,56.9,45.7,30.35,ENE,73,2.4,3.5,66,0.00,FEW,,0.00,WeatherDisplay:10.37,2013-04-26 14:31:00,
2013-04-26 10:33:00,57.1,46.6,30.35,ESE,111,2.0,5.0,68,0.00,FEW,,0.00,WeatherDisplay:10.37,2013-04-26 14:33:00,
2013-04-26 10:34:00,57.3,46.0,30.35,NE,41,2.7,6.9,66,0.00,FEW,,0.00,WeatherDisplay:10.37,2013-04-26 14:34:00,
2013-04-26 10:36:00,57.3,44.8,30.35,East,82,1.7,5.0,63,0.00,FEW,,0.00,WeatherDisplay:10.37,2013-04-26 14:36:00,
2013-04-26 10:38:00,57.6,46.3,30.35,East,95,4.1,9.2,66,0.00,FEW,,0.00,WeatherDisplay:10.37,2013-04-26 14:38:00,
2013-04-26 10:39:00,57.8,46.9,30.35,ESE,111,4.0,5.8,67,0.00,FEW,,0.00,WeatherDisplay:10.37,2013-04-26 14:39:00,
2013-04-26 10:40:00,57.9,47.0,30.34,ESE,112,2.9,5.8,67,0.00,FEW,,0.00,WeatherDisplay:10.37,2013-04-26 14:40:00,
2013-04-26 10:41:00,58.0,46.3,30.35,ESE,108,0.5,2.3,65,0.00,FEW,,0.00,WeatherDisplay:10.37,2013-04-26 14:41:00,
2013-04-26 10:42:00,58.1,46.8,30.35,ENE,60,3.5,8.1,66,0.00,FEW,,0.00,WeatherDisplay:10.37,2013-04-26 14:42:00,
2013-04-26 10:43:00,58.4,46.3,30.35,East,79,6.3,8.1,64,0.00,FEW,,0.00,WeatherDisplay:10.37,2013-04-26 14:43:00,
2013-04-26 10:44:00,58.5,44.7,30.34,ESE,103,8.0,10.0,60,0.00,FEW,,0.00,WeatherDisplay:10.37,2013-04-26 14:44:00,
2013-04-26 10:45:00,58.6,45.2,30.35,ESE,109,8.1,11.5,61,0.00,FEW,,0.00,WeatherDisplay:10.37,2013-04-26 14:45:00,
2013-04-26 10:46:00,58.6,45.6,30.35,ESE,106,5.9,10.4,62,0.00,FEW,,0.00,WeatherDisplay:10.37,2013-04-26 14:46:00,
2013-04-26 10:47:00,58.8,46.6,30.35,East,89,5.2,10.4,64,0.00,FEW,,0.00,WeatherDisplay:10.37,2013-04-26 14:47:00,
2013-04-26 10:48:00,59.0,46.8,30.34,ENE,65,2.0,4.6,64,0.00,FEW,,0.00,WeatherDisplay:10.37,2013-04-26 14:48:00,
2013-04-26 10:49:00,59.1,46.9,30.34,East,80,0.8,3.5,64,0.00,FEW,,0.00,WeatherDisplay:10.37,2013-04-26 14:49:00,
2013-04-26 10:50:00,59.1,47.7,30.34,East,80,1.4,3.5,66,0.00,FEW,,0.00,WeatherDisplay:10.37,2013-04-26 14:50:00,
2013-04-26 10:51:00,59.2,47.4,30.35,ENE,75,4.3,9.2,65,0.00,FEW,,0.00,WeatherDisplay:10.37,2013-04-26 14:51:00,
2013-04-26 10:52:00,59.4,48.0,30.35,NNE,23,3.1,6.9,66,0.00,FEW,,0.00,WeatherDisplay:10.37,2013-04-26 14:52:00,
2013-04-26 10:54:00,59.6,47.8,30.35,NE,48,6.9,10.4,65,0.00,FEW,,0.00,WeatherDisplay:10.37,2013-04-26 14:54:00,
2013-04-26 10:55:00,59.8,47.2,30.35,ENE,74,9.3,12.7,63,0.00,FEW,,0.00,WeatherDisplay:10.37,2013-04-26 14:55:00,
2013-04-26 10:56:00,59.9,47.3,30.35,ENE,63,8.4,12.7,63,0.00,FEW,,0.00,WeatherDisplay:10.37,2013-04-26 14:56:00,
2013-04-26 10:57:00,60.0,47.4,30.35,ENE,69,3.7,10.4,63,0.00,FEW,,0.00,WeatherDisplay:10.37,2013-04-26 14:57:00,
2013-04-26 10:59:00,60.3,46.8,30.35,East,83,6.5,11.0,61,0.00,FEW,,0.00,WeatherDisplay:10.37,2013-04-26 14:59:00,
2013-04-26 11:00:00,60.5,47.8,30.35,East,92,7.0,11.5,63,0.00,FEW,,0.00,WeatherDisplay:10.37,2013-04-26 15:00:00,
2013-04-26 11:01:00,60.7,48.0,30.35,ENE,72,7.8,10.4,63,0.00,FEW,,0.00,WeatherDisplay:10.37,2013-04-26 15:01:00,
2013-04-26 11:02:00,60.8,46.4,30.35,ENE,64,5.9,11.5,59,0.00,FEW,,0.00,WeatherDisplay:10.37,2013-04-26 15:02:00,
2013-04-26 11:04:00,61.0,47.4,30.35,East,94,5.8,11.0,61,0.00,FEW,,0.00,WeatherDisplay:10.37,2013-04-26 15:04:00,
2013-04-26 11:05:00,61.2,47.6,30.35,East,82,7.0,11.5,61,0.00,FEW,,0.00,WeatherDisplay:10.37,2013-04-26 15:05:00,
2013-04-26 11:06:00,61.3,47.7,30.35,East,96,5.2,11.5,61,0.00,FEW,,0.00,WeatherDisplay:10.37,2013-04-26 15:06:00,
2013-04-26 11:08:00,61.6,47.1,30.35,ENE,64,6.3,11.5,59,0.00,FEW,,0.00,WeatherDisplay:10.37,2013-04-26 15:08:00,
2013-04-26 11:09:00,61.7,47.2,30.35,East,82,4.3,6.9,59,0.00,FEW,,0.00,WeatherDisplay:10.37,2013-04-26 15:09:00,
2013-04-26 11:10:00,61.8,48.2,30.35,East,80,2.2,5.8,61,0.00,FEW,,0.00,WeatherDisplay:10.37,2013-04-26 15:10:00,
2013-04-26 11:11:00,61.8,48.2,30.35,East,85,3.1,5.8,61,0.00,FEW,,0.00,WeatherDisplay:10.37,2013-04-26 15:11:00,
2013-04-26 11:13:00,62.1,48.9,30.35,ESE,107,4.3,5.8,62,0.00,FEW,,0.00,WeatherDisplay:10.37,2013-04-26 15:13:00,
2013-04-26 11:15:00,62.3,49.1,30.35,NE,56,2.8,4.6,62,0.00,FEW,,0.00,WeatherDisplay:10.37,2013-04-26 15:15:00,
2013-04-26 11:16:00,62.5,49.7,30.35,ENE,72,1.9,5.8,63,0.00,FEW,,0.00,WeatherDisplay:10.37,2013-04-26 15:16:00,
2013-04-26 11:18:00,62.9,50.1,30.35,East,92,5.0,6.9,63,0.00,FEW,,0.00,WeatherDisplay:10.37,2013-04-26 15:18:00,
2013-04-26 11:20:00,63.1,49.0,30.35,ESE,115,5.9,10.4,60,0.00,FEW,,0.00,WeatherDisplay:10.37,2013-04-26 15:20:00,
2013-04-26 11:21:00,63.4,49.3,30.35,ESE,102,4.9,8.1,60,0.00,FEW,,0.00,WeatherDisplay:10.37,2013-04-26 15:21:00,
2013-04-26 11:24:00,64.0,49.4,30.35,East,86,6.1,11.5,59,0.00,FEW,,0.00,WeatherDisplay:10.37,2013-04-26 15:24:00,
2013-04-26 11:25:00,64.4,48.4,30.35,ESE,122,10.2,12.7,56,0.00,FEW,,0.00,WeatherDisplay:10.37,2013-04-26 15:25:00,
2013-04-26 11:26:00,64.5,48.9,30.35,East,96,6.2,12.7,57,0.00,FEW,,0.00,WeatherDisplay:10.37,2013-04-26 15:26:00,
2013-04-26 11:27:00,64.5,48.4,30.35,NE,45,3.7,11.5,56,0.00,FEW,,0.00,WeatherDisplay:10.37,2013-04-26 15:27:00,
2013-04-26 11:29:00,64.7,48.6,30.36,ENE,57,4.9,10.4,56,0.00,FEW,,0.00,WeatherDisplay:10.37,2013-04-26 15:29:00,
2013-04-26 11:30:00,64.7,47.7,30.35,East,87,7.0,13.0,54,0.00,FEW,,0.00,WeatherDisplay:10.37,2013-04-26 15:30:00,
2013-04-26 11:31:00,64.7,48.2,30.35,East,101,6.8,9.2,55,0.00,FEW,,0.00,WeatherDisplay:10.37,2013-04-26 15:31:00,
2013-04-26 11:32:00,64.8,48.2,30.35,East,93,7.6,11.0,55,0.00,FEW,,0.00,WeatherDisplay:10.37,2013-04-26 15:32:00,
2013-04-26 11:34:00,64.9,48.8,30.36,ENE,69,5.5,11.0,56,0.00,FEW,,0.00,WeatherDisplay:10.37,2013-04-26 15:34:00,
2013-04-26 11:35:00,65.0,47.9,30.36,ENE,75,8.0,11.5,54,0.00,FEW,,0.00,WeatherDisplay:10.37,2013-04-26 15:35:00,
2013-04-26 11:36:00,65.0,47.9,30.36,East,79,7.4,11.5,54,0.00,FEW,,0.00,WeatherDisplay:10.37,2013-04-26 15:36:00,
2013-04-26 11:37:00,65.0,47.9,30.36,ENE,74,6.6,10.4,54,0.00,FEW,,0.00,WeatherDisplay:10.37,2013-04-26 15:37:00,
2013-04-26 11:39:00,65.2,47.1,30.36,ENE,70,3.0,6.9,52,0.00,FEW,,0.00,WeatherDisplay:10.37,2013-04-26 15:39:00,
2013-04-26 11:41:00,65.2,49.1,30.36,East,91,3.9,6.9,56,0.00,FEW,,0.00,WeatherDisplay:10.37,2013-04-26 15:41:00,
2013-04-26 11:42:00,65.2,49.1,30.36,ESE,115,1.8,4.6,56,0.00,FEW,,0.00,WeatherDisplay:10.37,2013-04-26 15:42:00,
2013-04-26 11:45:00,65.4,48.3,30.35,NE,50,3.9,11.5,54,0.00,FEW,,0.00,WeatherDisplay:10.37,2013-04-26 15:45:00,
2013-04-26 11:46:00,65.4,47.3,30.35,ENE,65,2.8,4.6,52,0.00,FEW,,0.00,WeatherDisplay:10.37,2013-04-26 15:46:00,
2013-04-26 11:47:00,65.3,48.2,30.35,ENE,64,6.8,11.5,54,0.00,FEW,,0.00,WeatherDisplay:10.37,2013-04-26 15:47:00,
2013-04-26 11:50:00,65.2,47.6,30.35,East,89,4.4,6.9,53,0.00,FEW,,0.00,WeatherDisplay:10.37,2013-04-26 15:50:00,
2013-04-26 11:51:00,65.3,48.2,30.35,ESE,107,3.0,4.6,54,0.00,FEW,,0.00,WeatherDisplay:10.37,2013-04-26 15:51:00,
2013-04-26 11:52:00,65.4,48.8,30.35,ENE,58,0.7,3.5,55,0.00,FEW,,0.00,WeatherDisplay:10.37,2013-04-26 15:52:00,
2013-04-26 11:53:00,65.4,48.8,30.35,East,94,1.7,3.5,55,0.00,FEW,,0.00,WeatherDisplay:10.37,2013-04-26 15:53:00,
2013-04-26 11:55:00,65.6,49.5,30.35,ENE,72,4.9,6.9,56,0.00,FEW,,0.00,WeatherDisplay:10.37,2013-04-26 15:55:00,
2013-04-26 11:56:00,65.8,48.7,30.35,NE,53,2.7,5.0,54,0.00,FEW,,0.00,WeatherDisplay:10.37,2013-04-26 15:56:00,
2013-04-26 11:57:00,65.8,48.7,30.35,NNE,27,2.5,4.6,54,0.00,FEW,,0.00,WeatherDisplay:10.37,2013-04-26 15:57:00,
2013-04-26 11:58:00,65.9,48.3,30.35,ENE,61,2.3,8.0,53,0.00,FEW,,0.00,WeatherDisplay:10.37,2013-04-26 15:58:00,
2013-04-26 12:00:00,65.9,47.8,30.35,NE,34,3.6,9.2,52,0.00,FEW,,0.00,WeatherDisplay:10.37,2013-04-26 16:00:00,
2013-04-26 12:02:00,65.8,48.2,30.35,NE,48,3.6,4.6,53,0.00,BKN,,0.00,WeatherDisplay:10.37,2013-04-26 16:02:00,
2013-04-26 12:03:00,65.8,48.7,30.35,NE,49,2.8,6.9,54,0.00,BKN,,0.00,WeatherDisplay:10.37,2013-04-26 16:03:00,
2013-04-26 12:05:00,65.9,48.8,30.35,ENE,62,6.6,8.1,54,0.00,BKN,,0.00,WeatherDisplay:10.37,2013-04-26 16:05:00,
2013-04-26 12:07:00,66.2,47.5,30.35,ENE,67,6.0,9.2,51,0.00,BKN,,0.00,WeatherDisplay:10.37,2013-04-26 16:07:00,
2013-04-26 12:08:00,66.2,47.5,30.35,ENE,68,5.8,9.2,51,0.00,BKN,,0.00,WeatherDisplay:10.37,2013-04-26 16:08:00,
2013-04-26 12:11:00,66.5,48.3,30.35,ENE,75,4.9,8.0,52,0.00,BKN,,0.00,WeatherDisplay:10.37,2013-04-26 16:11:00,
2013-04-26 12:12:00,66.7,49.0,30.36,ENE,61,3.9,6.9,53,0.00,BKN,,0.00,WeatherDisplay:10.37,2013-04-26 16:12:00,
2013-04-26 12:13:00,66.7,49.0,30.36,ENE,60,3.7,6.9,53,0.00,BKN,,0.00,WeatherDisplay:10.37,2013-04-26 16:13:00,
2013-04-26 12:16:00,67.4,49.7,30.36,ENE,78,0.5,3.5,53,0.00,BKN,,0.00,WeatherDisplay:10.37,2013-04-26 16:16:00,
2013-04-26 12:18:00,67.5,49.8,30.36,ENE,58,2.6,6.9,53,0.00,BKN,,0.00,WeatherDisplay:10.37,2013-04-26 16:18:00,
2013-04-26 12:19:00,67.5,47.7,30.36,ENE,67,2.7,8.1,49,0.00,BKN,,0.00,WeatherDisplay:10.37,2013-04-26 16:19:00,
2013-04-26 12:21:00,67.7,49.9,30.36,East,97,5.8,7.0,53,0.00,BKN,,0.00,WeatherDisplay:10.37,2013-04-26 16:21:00,
2013-04-26 12:23:00,67.9,50.6,30.36,East,80,1.5,4.6,54,0.00,BKN,,0.00,WeatherDisplay:10.37,2013-04-26 16:23:00,
2013-04-26 12:24:00,68.0,50.2,30.36,East,95,1.5,3.5,53,0.00,BKN,,0.00,WeatherDisplay:10.37,2013-04-26 16:24:00,
2013-04-26 12:26:00,68.3,50.0,30.36,East,79,3.3,11.5,52,0.00,BKN,,0.00,WeatherDisplay:10.37,2013-04-26 16:26:00,
2013-04-26 12:28:00,68.3,49.5,30.36,ENE,64,0.2,4.6,51,0.00,BKN,,0.00,WeatherDisplay:10.37,2013-04-26 16:28:00,
2013-04-26 12:29:00,68.3,47.8,30.36,ENE,64,0.0,1.1,48,0.00,BKN,,0.00,WeatherDisplay:10.37,2013-04-26 16:29:00,
2013-04-26 12:31:00,68.4,50.6,30.36,East,79,4.9,7.0,53,0.00,BKN,,0.00,WeatherDisplay:10.37,2013-04-26 16:31:00,
2013-04-26 12:33:00,68.8,50.5,30.35,East,80,3.0,5.8,52,0.00,BKN,,0.00,WeatherDisplay:10.37,2013-04-26 16:33:00,
2013-04-26 12:34:00,68.9,50.5,30.35,East,79,4.2,6.0,52,0.00,BKN,,0.00,WeatherDisplay:10.37,2013-04-26 16:34:00,
2013-04-26 12:37:00,69.4,51.0,30.35,ENE,66,0.4,3.5,52,0.00,BKN,,0.00,WeatherDisplay:10.37,2013-04-26 16:37:00,
2013-04-26 12:39:00,69.6,50.7,30.35,East,96,2.9,5.8,51,0.00,BKN,,0.00,WeatherDisplay:10.37,2013-04-26 16:39:00,
2013-04-26 12:42:00,69.5,49.5,30.35,NE,56,1.1,3.5,49,0.00,BKN,,0.00,WeatherDisplay:10.37,2013-04-26 16:42:00,
2013-04-26 12:44:00,69.5,50.6,30.35,NNE,30,3.4,7.0,51,0.00,BKN,,0.00,WeatherDisplay:10.37,2013-04-26 16:44:00,
2013-04-26 12:45:00,69.4,49.4,30.35,ENE,58,3.8,6.9,49,0.00,BKN,,0.00,WeatherDisplay:10.37,2013-04-26 16:45:00,
2013-04-26 12:47:00,69.1,49.1,30.36,NE,41,2.3,5.8,49,0.00,BKN,,0.00,WeatherDisplay:10.37,2013-04-26 16:47:00,
2013-04-26 12:49:00,69.0,49.6,30.35,NE,48,2.4,4.0,50,0.00,BKN,,0.00,WeatherDisplay:10.37,2013-04-26 16:49:00,
2013-04-26 12:50:00,68.9,48.4,30.35,NE,49,1.4,3.5,48,0.00,BKN,,0.00,WeatherDisplay:10.37,2013-04-26 16:50:00,
2013-04-26 12:52:00,68.6,47.6,30.35,ENE,75,0.6,3.0,47,0.00,BKN,,0.00,WeatherDisplay:10.37,2013-04-26 16:52:00,
2013-04-26 12:54:00,68.7,49.3,30.35,ENE,66,1.8,5.0,50,0.00,BKN,,0.00,WeatherDisplay:10.37,2013-04-26 16:54:00,
2013-04-26 12:55:00,68.8,50.5,30.35,NE,54,3.7,4.6,52,0.00,BKN,,0.00,WeatherDisplay:10.37,2013-04-26 16:55:00,
2013-04-26 12:58:00,68.8,48.9,30.35,NNW,332,4.0,5.0,49,0.00,BKN,,0.00,WeatherDisplay:10.37,2013-04-26 16:58:00,
2013-04-26 12:59:00,68.4,47.9,30.35,NNW,335,3.4,5.8,48,0.00,BKN,,0.00,WeatherDisplay:10.37,2013-04-26 16:59:00,
2013-04-26 13:00:00,68.2,47.8,30.35,NNW,332,2.7,5.8,48,0.00,BKN,,0.00,WeatherDisplay:10.37,2013-04-26 17:00:00,
2013-04-26 13:03:00,68.3,50.0,30.35,North,357,6.0,8.1,52,0.00,BKN,,0.00,WeatherDisplay:10.37,2013-04-26 17:03:00,
2013-04-26 13:04:00,68.3,48.9,30.35,NNW,332,2.0,6.9,50,0.00,BKN,,0.00,WeatherDisplay:10.37,2013-04-26 17:04:00,
2013-04-26 13:05:00,68.3,48.9,30.35,North,357,2.3,4.6,50,0.00,BKN,,0.00,WeatherDisplay:10.37,2013-04-26 17:05:00,
2013-04-26 13:08:00,68.3,48.4,30.35,ENE,57,0.8,4.0,49,0.00,BKN,,0.00,WeatherDisplay:10.37,2013-04-26 17:08:00,
2013-04-26 13:09:00,68.4,49.6,30.35,ENE,75,4.8,6.0,51,0.00,BKN,,0.00,WeatherDisplay:10.37,2013-04-26 17:09:00,
2013-04-26 13:10:00,68.5,49.7,30.35,ENE,64,5.7,8.1,51,0.00,BKN,,0.00,WeatherDisplay:10.37,2013-04-26 17:10:00,
2013-04-26 13:11:00,68.8,48.9,30.35,ENE,67,1.6,5.8,49,0.00,BKN,,0.00,WeatherDisplay:10.37,2013-04-26 17:11:00,
2013-04-26 13:13:00,69.1,50.2,30.35,NE,53,0.4,2.3,51,0.00,BKN,,0.00,WeatherDisplay:10.37,2013-04-26 17:13:00,
2013-04-26 13:14:00,69.3,49.3,30.35,ENE,75,0.4,1.1,49,0.00,BKN,,0.00,WeatherDisplay:10.37,2013-04-26 17:14:00,
2013-04-26 13:15:00,69.4,49.9,30.35,NE,54,2.3,4.0,50,0.00,BKN,,0.00,WeatherDisplay:10.37,2013-04-26 17:15:00,
2013-04-26 13:16:00,69.5,49.5,30.35,NNE,25,1.8,5.8,49,0.00,BKN,,0.00,WeatherDisplay:10.37,2013-04-26 17:16:00,
2013-04-26 13:18:00,69.2,48.1,30.35,NNW,336,4.0,4.6,47,0.00,BKN,,0.00,WeatherDisplay:10.37,2013-04-26 17:18:00,
2013-04-26 13:19:00,69.0,49.6,30.35,ENE,74,1.1,4.6,50,0.00,BKN,,0.00,WeatherDisplay:10.37,2013-04-26 17:19:00,
2013-04-26 13:20:00,69.1,50.7,30.35,East,95,1.9,4.0,52,0.00,BKN,,0.00,WeatherDisplay:10.37,2013-04-26 17:20:00,
2013-04-26 13:21:00,69.3,51.4,30.35,East,100,2.6,5.8,53,0.00,BKN,,0.00,WeatherDisplay:10.37,2013-04-26 17:21:00,
2013-04-26 13:23:00,69.7,50.8,30.35,ENE,59,1.8,3.5,51,0.00,BKN,,0.00,WeatherDisplay:10.37,2013-04-26 17:23:00,
2013-04-26 13:25:00,70.1,51.1,30.35,NE,44,3.7,5.8,51,0.00,BKN,,0.00,WeatherDisplay:10.37,2013-04-26 17:25:00,
2013-04-26 13:26:00,70.3,50.8,30.35,NE,51,0.2,5.8,50,0.00,BKN,,0.00,WeatherDisplay:10.37,2013-04-26 17:26:00,
2013-04-26 13:28:00,70.4,49.2,30.35,North,10,2.4,4.6,47,0.00,BKN,,0.00,WeatherDisplay:10.37,2013-04-26 17:28:00,
2013-04-26 13:30:00,70.2,47.9,30.35,North,0,0.0,1.1,45,0.00,BKN,,0.00,WeatherDisplay:10.37,2013-04-26 17:30:00,
2013-04-26 13:31:00,70.0,47.1,30.35,NNW,340,3.2,6.0,44,0.00,BKN,,0.00,WeatherDisplay:10.37,2013-04-26 17:31:00,
2013-04-26 13:34:00,69.7,48.6,30.35,North,350,1.4,3.5,47,0.00,BKN,,0.00,WeatherDisplay:10.37,2013-04-26 17:34:00,
2013-04-26 13:35:00,69.5,49.5,30.35,North,349,1.1,6.0,49,0.00,BKN,,0.00,WeatherDisplay:10.37,2013-04-26 17:35:00,
2013-04-26 13:36:00,69.5,50.0,30.35,North,357,2.5,5.8,50,0.00,BKN,,0.00,WeatherDisplay:10.37,2013-04-26 17:36:00,
2013-04-26 13:37:00,69.5,48.9,30.35,North,3,3.6,5.8,48,0.00,BKN,,0.00,WeatherDisplay:10.37,2013-04-26 17:37:00,
2013-04-26 13:39:00,69.5,50.0,30.35,NE,47,3.0,8.1,50,0.00,BKN,,0.00,WeatherDisplay:10.37,2013-04-26 17:39:00,
2013-04-26 13:41:00,69.7,51.3,30.35,North,0,2.8,5.8,52,0.00,BKN,,0.00,WeatherDisplay:10.37,2013-04-26 17:41:00,
2013-04-26 13:42:00,69.8,49.2,30.35,NNW,341,3.8,6.0,48,0.00,BKN,,0.00,WeatherDisplay:10.37,2013-04-26 17:42:00,
2013-04-26 13:44:00,69.7,47.4,30.35,North,8,2.7,4.6,45,0.00,BKN,,0.00,WeatherDisplay:10.37,2013-04-26 17:44:00,
2013-04-26 13:46:00,69.8,48.7,30.34,NNW,329,1.9,5.8,47,0.00,BKN,,0.00,WeatherDisplay:10.37,2013-04-26 17:46:00,
2013-04-26 13:47:00,69.8,49.2,30.34,NNW,336,1.4,4.6,48,0.00,BKN,,0.00,WeatherDisplay:10.37,2013-04-26 17:47:00,
2013-04-26 13:49:00,70.0,49.4,30.34,North,355,0.4,3.5,48,0.00,BKN,,0.00,WeatherDisplay:10.37,2013-04-26 17:49:00,
2013-04-26 13:51:00,70.1,47.2,30.34,NNW,335,1.1,3.5,44,0.00,BKN,,0.00,WeatherDisplay:10.37,2013-04-26 17:51:00,
2013-04-26 13:52:00,70.0,48.8,30.34,North,356,2.8,2.8,47,0.00,BKN,,0.00,WeatherDisplay:10.37,2013-04-26 17:52:00,
2013-04-26 13:55:00,70.0,50.0,30.34,North,350,0.0,1.1,49,0.00,BKN,,0.00,WeatherDisplay:10.37,2013-04-26 17:55:00,
2013-04-26 13:56:00,70.0,48.3,30.34,North,350,0.0,1.0,46,0.00,BKN,,0.00,WeatherDisplay:10.37,2013-04-26 17:56:00,
2013-04-26 13:58:00,69.8,49.8,30.34,NNW,339,4.3,5.8,49,0.00,BKN,,0.00,WeatherDisplay:10.37,2013-04-26 17:58:00,
2013-04-26 14:00:00,69.7,49.1,30.34,NNW,328,1.2,3.5,48,0.00,BKN,,0.00,WeatherDisplay:10.37,2013-04-26 18:00:00,
2013-04-26 14:01:00,69.5,48.4,30.34,NNW,328,0.3,3.5,47,0.00,BKN,,0.00,WeatherDisplay:10.37,2013-04-26 18:01:00,
2013-04-26 14:02:00,69.5,47.2,30.34,NNW,328,0.1,2.3,45,0.00,BKN,,0.00,WeatherDisplay:10.37,2013-04-26 18:02:00,
2013-04-26 14:03:00,69.5,47.8,30.34,NNW,328,0.0,0.0,46,0.00,BKN,,0.00,WeatherDisplay:10.37,2013-04-26 18:03:00,
2013-04-26 14:05:00,69.3,47.0,30.34,NNW,337,2.2,4.6,45,0.00,BKN,,0.00,WeatherDisplay:10.37,2013-04-26 18:05:00,
2013-04-26 14:06:00,69.4,49.4,30.34,ENE,60,1.3,3.5,49,0.00,BKN,,0.00,WeatherDisplay:10.37,2013-04-26 18:06:00,
2013-04-26 14:07:00,69.6,50.1,30.33,NE,56,0.8,3.5,50,0.00,BKN,,0.00,WeatherDisplay:10.37,2013-04-26 18:07:00,
2013-04-26 14:08:00,69.7,49.7,30.33,NE,45,1.6,3.5,49,0.00,BKN,,0.00,WeatherDisplay:10.37,2013-04-26 18:08:00,
2013-04-26 14:10:00,70.0,48.3,30.33,NNW,335,0.5,5.8,46,0.00,BKN,,0.00,WeatherDisplay:10.37,2013-04-26 18:10:00,
2013-04-26 14:13:00,69.9,47.0,30.33,NNW,339,2.7,3.5,44,0.00,BKN,,0.00,WeatherDisplay:10.37,2013-04-26 18:13:00,
2013-04-26 14:16:00,69.6,47.3,30.33,NNW,336,0.3,3.5,45,0.00,BKN,,0.00,WeatherDisplay:10.37,2013-04-26 18:16:00,
2013-04-26 14:18:00,69.6,49.6,30.33,NNE,28,0.8,3.5,49,0.00,BKN,,0.00,WeatherDisplay:10.37,2013-04-26 18:18:00,
2013-04-26 14:19:00,69.6,47.9,30.33,NNE,28,0.3,1.1,46,0.00,BKN,,0.00,WeatherDisplay:10.37,2013-04-26 18:19:00,
2013-04-26 14:21:00,69.5,46.6,30.32,NE,55,3.6,6.0,44,0.00,BKN,,0.00,WeatherDisplay:10.37,2013-04-26 18:21:00,
2013-04-26 14:23:00,69.6,47.9,30.33,NE,48,0.0,3.5,46,0.00,BKN,,0.00,WeatherDisplay:10.37,2013-04-26 18:23:00,
2013-04-26 14:24:00,69.6,47.9,30.33,NE,48,0.0,1.1,46,0.00,BKN,,0.00,WeatherDisplay:10.37,2013-04-26 18:24:00,
2013-04-26 14:26:00,69.7,48.6,30.33,NE,48,0.0,0.0,47,0.00,BKN,,0.00,WeatherDisplay:10.37,2013-04-26 18:26:00,
2013-04-26 14:28:00,69.6,47.9,30.33,NNW,331,0.1,1.1,46,0.00,BKN,,0.00,WeatherDisplay:10.37,2013-04-26 18:28:00,
2013-04-26 14:29:00,69.6,46.7,30.33,NNW,331,0.1,1.1,44,0.00,BKN,,0.00,WeatherDisplay:10.37,2013-04-26 18:29:00,
2013-04-26 14:32:00,69.4,47.1,30.33,NNW,331,0.0,1.1,45,0.00,BKN,,0.00,WeatherDisplay:10.37,2013-04-26 18:32:00,
2013-04-26 14:33:00,69.5,50.0,30.33,ENE,57,0.1,1.0,50,0.00,BKN,,0.00,WeatherDisplay:10.37,2013-04-26 18:33:00,
2013-04-26 14:34:00,69.6,49.6,30.33,ENE,58,1.6,3.5,49,0.00,BKN,,0.00,WeatherDisplay:10.37,2013-04-26 18:34:00,
2013-04-26 14:37:00,70.4,50.3,30.33,ENE,78,0.7,3.0,49,0.00,BKN,,0.00,WeatherDisplay:10.37,2013-04-26 18:37:00,
2013-04-26 14:38:00,70.8,51.2,30.32,ESE,114,2.8,3.5,50,0.00,BKN,,0.00,WeatherDisplay:10.37,2013-04-26 18:38:00,
2013-04-26 14:39:00,71.0,50.9,30.32,ESE,113,2.0,3.5,49,0.00,BKN,,0.00,WeatherDisplay:10.37,2013-04-26 18:39:00,
2013-04-26 14:42:00,71.6,49.1,30.32,NNE,15,2.4,3.5,45,0.00,BKN,,0.00,WeatherDisplay:10.37,2013-04-26 18:42:00,
2013-04-26 14:43:00,71.5,47.8,30.32,North,355,0.1,3.5,43,0.00,BKN,,0.00,WeatherDisplay:10.37,2013-04-26 18:43:00,
2013-04-26 14:44:00,71.5,49.6,30.32,ENE,72,1.6,6.0,46,0.00,BKN,,0.00,WeatherDisplay:10.37,2013-04-26 18:44:00,
2013-04-26 14:47:00,72.0,50.1,30.32,East,85,2.5,3.5,46,0.00,BKN,,0.00,WeatherDisplay:10.37,2013-04-26 18:47:00,
2013-04-26 14:48:00,72.2,50.8,30.32,ENE,78,1.6,3.5,47,0.00,BKN,,0.00,WeatherDisplay:10.37,2013-04-26 18:48:00,
2013-04-26 14:49:00,72.2,50.8,30.32,ENE,77,1.3,3.5,47,0.00,BKN,,0.00,WeatherDisplay:10.37,2013-04-26 18:49:00,
2013-04-26 14:52:00,72.5,50.5,30.32,ENE,71,1.7,4.0,46,0.00,BKN,,0.00,WeatherDisplay:10.37,2013-04-26 18:52:00,
2013-04-26 14:53:00,72.6,51.2,30.32,NE,40,0.9,3.5,47,0.00,BKN,,0.00,WeatherDisplay:10.37,2013-04-26 18:53:00,
2013-04-26 14:54:00,72.6,51.2,30.32,NNE,31,1.6,3.5,47,0.00,BKN,,0.00,WeatherDisplay:10.37,2013-04-26 18:54:00,
2013-04-26 14:55:00,72.6,49.4,30.32,NNE,31,1.3,3.5,44,0.00,BKN,,0.00,WeatherDisplay:10.37,2013-04-26 18:55:00,
2013-04-26 14:57:00,72.2,47.8,30.32,NNW,346,2.8,4.6,42,0.00,BKN,,0.00,WeatherDisplay:10.37,2013-04-26 18:57:00,
2013-04-26 14:58:00,71.8,48.1,30.32,NNW,346,1.0,2.3,43,0.00,BKN,,0.00,WeatherDisplay:10.37,2013-04-26 18:58:00,
2013-04-26 14:59:00,71.7,47.4,30.32,NNW,346,0.4,2.3,42,0.00,BKN,,0.00,WeatherDisplay:10.37,2013-04-26 18:59:00,
2013-04-26 15:00:00,71.6,48.5,30.32,NNW,346,0.0,1.1,44,0.00,BKN,,0.00,WeatherDisplay:10.37,2013-04-26 19:00:00,
2013-04-26 15:03:00,71.4,51.2,30.32,NE,46,0.1,1.1,49,0.00,OVC,,0.00,WeatherDisplay:10.37,2013-04-26 19:03:00,
2013-04-26 15:04:00,71.5,50.8,30.32,NE,52,1.3,4.6,48,0.00,OVC,,0.00,WeatherDisplay:10.37,2013-04-26 19:04:00,
2013-04-26 15:05:00,71.5,49.6,30.32,NE,52,0.1,3.5,46,0.00,OVC,,0.00,WeatherDisplay:10.37,2013-04-26 19:05:00,
2013-04-26 15:08:00,71.6,49.7,30.32,NE,54,0.4,2.3,46,0.00,OVC,,0.00,WeatherDisplay:10.37,2013-04-26 19:08:00,
2013-04-26 15:09:00,71.6,49.7,30.32,NE,54,0.0,2.3,46,0.00,OVC,,0.00,WeatherDisplay:10.37,2013-04-26 19:09:00,
2013-04-26 15:10:00,71.6,49.1,30.32,NE,47,0.2,2.0,45,0.00,OVC,,0.00,WeatherDisplay:10.37,2013-04-26 19:10:00,
2013-04-26 15:13:00,71.5,50.2,30.32,North,9,0.3,3.0,47,0.00,OVC,,0.00,WeatherDisplay:10.37,2013-04-26 19:13:00,
2013-04-26 15:14:00,71.5,49.0,30.32,North,352,1.7,3.5,45,0.00,OVC,,0.00,WeatherDisplay:10.37,2013-04-26 19:14:00,
2013-04-26 15:15:00,71.3,49.4,30.32,NNW,342,1.3,3.5,46,0.00,OVC,,0.00,WeatherDisplay:10.37,2013-04-26 19:15:00,
2013-04-26 15:18:00,70.6,48.2,30.32,WNW,301,1.2,3.5,45,0.00,OVC,,0.00,WeatherDisplay:10.37,2013-04-26 19:18:00,
2013-04-26 15:19:00,70.4,46.8,30.32,WNW,301,0.0,3.5,43,0.00,OVC,,0.00,WeatherDisplay:10.37,2013-04-26 19:19:00,
2013-04-26 15:20:00,70.2,46.0,30.31,West,270,0.2,1.1,42,0.00,OVC,,0.00,WeatherDisplay:10.37,2013-04-26 19:20:00,
2013-04-26 15:24:00,70.0,46.5,30.31,West,270,0.1,1.1,43,0.00,OVC,,0.00,WeatherDisplay:10.37,2013-04-26 19:24:00,
2013-04-26 15:25:00,69.9,47.0,30.31,West,270,0.0,0.0,44,0.00,OVC,,0.00,WeatherDisplay:10.37,2013-04-26 19:25:00,
2013-04-26 15:26:00,69.9,47.0,30.31,West,270,0.0,0.0,44,0.00,OVC,,0.00,WeatherDisplay:10.37,2013-04-26 19:26:00,
2013-04-26 15:29:00,70.2,49.0,30.31,West,270,0.0,0.0,47,0.00,OVC,,0.00,WeatherDisplay:10.37,2013-04-26 19:29:00,
2013-04-26 15:30:00,70.3,49.7,30.31,West,270,0.0,0.0,48,0.00,OVC,,0.00,WeatherDisplay:10.37,2013-04-26 19:30:00,
2013-04-26 15:31:00,70.5,51.5,30.31,SSW,196,0.0,1.1,51,0.00,OVC,,0.00,WeatherDisplay:10.37,2013-04-26 19:31:00,
2013-04-26 15:32:00,70.6,50.5,30.31,SSW,195,0.0,0.0,49,0.00,OVC,,0.00,WeatherDisplay:10.37,2013-04-26 19:32:00,
2013-04-26 15:34:00,70.8,50.1,30.30,SSW,195,0.0,0.0,48,0.00,OVC,,0.00,WeatherDisplay:10.37,2013-04-26 19:34:00,
2013-04-26 15:35:00,70.8,49.0,30.30,NW,325,1.2,3.0,46,0.00,OVC,,0.00,WeatherDisplay:10.37,2013-04-26 19:35:00,
2013-04-26 15:36:00,70.7,49.5,30.30,NW,326,0.7,3.5,47,0.00,OVC,,0.00,WeatherDisplay:10.37,2013-04-26 19:36:00,
2013-04-26 15:37:00,70.8,50.7,30.30,NNE,28,0.9,1.1,49,0.00,OVC,,0.00,WeatherDisplay:10.37,2013-04-26 19:37:00,
2013-04-26 15:39:00,70.8,49.6,30.30,NNE,29,0.0,0.0,47,0.00,OVC,,0.00,WeatherDisplay:10.37,2013-04-26 19:39:00,
2013-04-26 15:40:00,70.7,49.5,30.30,NNE,29,0.0,1.1,47,0.00,OVC,,0.00,WeatherDisplay:10.37,2013-04-26 19:40:00,
2013-04-26 15:41:00,70.6,49.4,30.30,NNE,29,0.1,1.1,47,0.00,OVC,,0.00,WeatherDisplay:10.37,2013-04-26 19:41:00,
2013-04-26 15:42:00,70.5,51.0,30.30,NE,53,0.2,2.0,50,0.00,OVC,,0.00,WeatherDisplay:10.37,2013-04-26 19:42:00,
2013-04-26 15:44:00,70.5,50.4,30.30,ENE,74,2.5,3.5,49,0.00,OVC,,0.00,WeatherDisplay:10.37,2013-04-26 19:44:00,
2013-04-26 15:46:00,70.6,50.5,30.29,East,90,0.1,1.1,49,0.00,OVC,,0.00,WeatherDisplay:10.37,2013-04-26 19:46:00,
2013-04-26 15:47:00,70.7,51.1,30.29,East,90,0.2,1.1,50,0.00,OVC,,0.00,WeatherDisplay:10.37,2013-04-26 19:47:00,
2013-04-26 15:49:00,70.8,50.1,30.29,East,79,0.1,3.5,48,0.00,OVC,,0.00,WeatherDisplay:10.37,2013-04-26 19:49:00,
2013-04-26 15:51:00,71.0,50.9,30.29,East,86,0.4,3.5,49,0.00,OVC,,0.00,WeatherDisplay:10.37,2013-04-26 19:51:00,
2013-04-26 15:52:00,71.0,50.9,30.29,East,88,0.9,3.5,49,0.00,OVC,,0.00,WeatherDisplay:10.37,2013-04-26 19:52:00,
2013-04-26 15:54:00,71.2,50.5,30.29,East,88,1.1,3.5,48,0.00,OVC,,0.00,WeatherDisplay:10.37,2013-04-26 19:54:00,
2013-04-26 15:55:00,71.2,51.1,30.29,East,88,0.1,2.3,49,0.00,OVC,,0.00,WeatherDisplay:10.37,2013-04-26 19:55:00,
2013-04-26 15:56:00,71.3,51.7,30.29,East,88,0.0,1.1,50,0.00,OVC,,0.00,WeatherDisplay:10.37,2013-04-26 19:56:00,
2013-04-26 15:57:00,71.3,51.7,30.29,East,88,0.0,1.1,50,0.00,OVC,,0.00,WeatherDisplay:10.37,2013-04-26 19:57:00,
2013-04-26 15:59:00,71.2,49.9,30.28,East,88,0.0,0.0,47,0.00,OVC,,0.00,WeatherDisplay:10.37,2013-04-26 19:59:00,
2013-04-26 16:00:00,71.2,49.9,30.28,East,88,0.0,1.0,47,0.00,OVC,,0.00,WeatherDisplay:10.37,2013-04-26 20:00:00,
2013-04-26 16:01:00,71.1,51.5,30.28,East,88,0.6,3.0,50,0.00,BKN,,0.00,WeatherDisplay:10.37,2013-04-26 20:01:00,
2013-04-26 16:02:00,71.1,51.5,30.28,East,88,1.0,3.5,50,0.00,BKN,,0.00,WeatherDisplay:10.37,2013-04-26 20:02:00,
2013-04-26 16:03:00,71.1,51.5,30.28,East,88,0.2,3.5,50,0.00,BKN,,0.00,WeatherDisplay:10.37,2013-04-26 20:03:00,
2013-04-26 16:05:00,71.2,51.1,30.27,East,88,0.0,1.1,49,0.00,BKN,,0.00,WeatherDisplay:10.37,2013-04-26 20:05:00,
2013-04-26 16:06:00,71.1,51.5,30.27,East,88,0.2,1.1,50,0.00,BKN,,0.00,WeatherDisplay:10.37,2013-04-26 20:06:00,
2013-04-26 16:07:00,71.1,51.5,30.27,East,88,0.0,1.1,50,0.00,BKN,,0.00,WeatherDisplay:10.37,2013-04-26 20:07:00,
2013-04-26 16:08:00,71.1,51.5,30.27,East,88,0.0,1.1,50,0.00,BKN,,0.00,WeatherDisplay:10.37,2013-04-26 20:08:00,
2013-04-26 16:10:00,71.1,50.4,30.27,East,81,4.0,4.6,48,0.00,BKN,,0.00,WeatherDisplay:10.37,2013-04-26 20:10:00,
2013-04-26 16:12:00,71.1,51.5,30.27,East,81,0.0,2.3,50,0.00,BKN,,0.00,WeatherDisplay:10.37,2013-04-26 20:12:00,
2013-04-26 16:13:00,71.1,51.5,30.26,East,81,0.0,0.0,50,0.00,BKN,,0.00,WeatherDisplay:10.37,2013-04-26 20:13:00,
2013-04-26 16:15:00,70.9,50.8,30.27,East,81,0.0,0.0,49,0.00,BKN,,0.00,WeatherDisplay:10.37,2013-04-26 20:15:00,
2013-04-26 16:16:00,70.8,51.2,30.27,East,81,0.2,0.0,50,0.00,BKN,,0.00,WeatherDisplay:10.37,2013-04-26 20:16:00,
2013-04-26 16:17:00,70.7,51.1,30.27,East,81,0.0,1.1,50,0.00,BKN,,0.00,WeatherDisplay:10.37,2013-04-26 20:17:00,
2013-04-26 16:18:00,70.7,51.7,30.27,East,81,0.1,0.0,51,0.00,BKN,,0.00,WeatherDisplay:10.37,2013-04-26 20:18:00,
2013-04-26 16:20:00,70.6,51.1,30.27,East,79,0.0,2.0,50,0.00,BKN,,0.00,WeatherDisplay:10.37,2013-04-26 20:20:00,
2013-04-26 16:21:00,70.5,50.4,30.27,ENE,75,0.2,1.1,49,0.00,BKN,,0.00,WeatherDisplay:10.37,2013-04-26 20:21:00,
2013-04-26 16:22:00,70.5,50.4,30.27,ENE,75,0.1,1.1,49,0.00,BKN,,0.00,WeatherDisplay:10.37,2013-04-26 20:22:00,
2013-04-26 16:23:00,70.5,50.4,30.27,ENE,75,0.0,1.1,49,0.00,BKN,,0.00,WeatherDisplay:10.37,2013-04-26 20:23:00,
2013-04-26 16:26:00,70.3,50.2,30.27,ENE,69,0.0,1.1,49,0.00,BKN,,0.00,WeatherDisplay:10.37,2013-04-26 20:26:00,
2013-04-26 16:27:00,70.3,49.7,30.27,ENE,69,0.0,0.0,48,0.00,BKN,,0.00,WeatherDisplay:10.37,2013-04-26 20:27:00,
2013-04-26 16:28:00,70.2,49.6,30.27,ENE,69,0.0,0.0,48,0.00,BKN,,0.00,WeatherDisplay:10.37,2013-04-26 20:28:00,
2013-04-26 16:31:00,70.1,49.5,30.27,ENE,69,0.0,0.0,48,0.00,BKN,,0.00,WeatherDisplay:10.37,2013-04-26 20:31:00,
2013-04-26 16:32:00,69.9,48.2,30.27,ENE,69,0.0,0.0,46,0.00,BKN,,0.00,WeatherDisplay:10.37,2013-04-26 20:32:00,
2013-04-26 16:33:00,69.9,48.2,30.27,ENE,69,0.0,0.0,46,0.00,BKN,,0.00,WeatherDisplay:10.37,2013-04-26 20:33:00,
2013-04-26 16:36:00,69.7,49.7,30.27,ENE,69,0.0,1.1,49,0.00,BKN,,0.00,WeatherDisplay:10.37,2013-04-26 20:36:00,
2013-04-26 16:37:00,69.5,48.4,30.27,ENE,69,0.0,0.0,47,0.00,BKN,,0.00,WeatherDisplay:10.37,2013-04-26 20:37:00,
2013-04-26 16:38:00,69.5,48.4,30.27,ENE,69,0.0,0.0,47,0.00,BKN,,0.00,WeatherDisplay:10.37,2013-04-26 20:38:00,
2013-04-26 16:41:00,69.4,49.4,30.27,ENE,69,0.0,0.0,49,0.00,BKN,,0.00,WeatherDisplay:10.37,2013-04-26 20:41:00,
2013-04-26 16:42:00,69.4,48.9,30.27,ENE,69,0.0,0.0,48,0.00,BKN,,0.00,WeatherDisplay:10.37,2013-04-26 20:42:00,
2013-04-26 16:43:00,69.4,48.9,30.26,ENE,69,0.0,0.0,48,0.00,BKN,,0.00,WeatherDisplay:10.37,2013-04-26 20:43:00,
2013-04-26 16:46:00,69.3,48.8,30.27,ENE,69,0.0,0.0,48,0.00,BKN,,0.00,WeatherDisplay:10.37,2013-04-26 20:46:00,
2013-04-26 16:47:00,69.3,50.9,30.27,ENE,69,0.0,0.0,52,0.00,BKN,,0.00,WeatherDisplay:10.37,2013-04-26 20:47:00,
2013-04-26 16:48:00,69.3,50.4,30.27,ENE,69,0.0,0.0,51,0.00,BKN,,0.00,WeatherDisplay:10.37,2013-04-26 20:48:00,
2013-04-26 16:51:00,69.2,50.3,30.27,ENE,69,0.0,0.0,51,0.00,BKN,,0.00,WeatherDisplay:10.37,2013-04-26 20:51:00,
2013-04-26 16:52:00,69.2,51.8,30.27,ENE,69,0.0,0.0,54,0.00,BKN,,0.00,WeatherDisplay:10.37,2013-04-26 20:52:00,
2013-04-26 16:53:00,69.2,52.3,30.27,ENE,69,0.0,0.0,55,0.00,BKN,,0.00,WeatherDisplay:10.37,2013-04-26 20:53:00,
2013-04-26 16:56:00,69.2,49.8,30.27,ENE,75,0.0,1.1,50,0.00,BKN,,0.00,WeatherDisplay:10.37,2013-04-26 20:56:00,
2013-04-26 16:57:00,69.2,49.8,30.26,ENE,75,0.0,0.0,50,0.00,BKN,,0.00,WeatherDisplay:10.37,2013-04-26 20:57:00,
2013-04-26 16:58:00,69.2,49.8,30.26,ENE,75,0.0,0.0,50,0.00,BKN,,0.00,WeatherDisplay:10.37,2013-04-26 20:58:00,
2013-04-26 16:59:00,69.2,50.8,30.26,ENE,75,0.1,0.0,52,0.00,BKN,,0.00,WeatherDisplay:10.37,2013-04-26 20:59:00,
2013-04-26 17:01:00,69.3,51.9,30.26,ENE,75,0.0,0.0,54,0.00,BKN,,0.00,WeatherDisplay:10.37,2013-04-26 21:01:00,
2013-04-26 17:02:00,69.4,51.5,30.26,ENE,75,0.0,0.0,53,0.00,BKN,,0.00,WeatherDisplay:10.37,2013-04-26 21:02:00,
2013-04-26 17:03:00,69.3,50.9,30.26,ENE,75,0.1,0.0,52,0.00,BKN,,0.00,WeatherDisplay:10.37,2013-04-26 21:03:00,
2013-04-26 17:04:00,69.4,51.5,30.25,ENE,75,0.0,1.1,53,0.00,BKN,,0.00,WeatherDisplay:10.37,2013-04-26 21:04:00,
2013-04-26 17:06:00,69.4,51.0,30.25,ENE,75,1.0,3.0,52,0.00,BKN,,0.00,WeatherDisplay:10.37,2013-04-26 21:06:00,
2013-04-26 17:08:00,69.4,49.9,30.25,ENE,75,0.0,1.1,50,0.00,BKN,,0.00,WeatherDisplay:10.37,2013-04-26 21:08:00,
2013-04-26 17:09:00,69.4,49.9,30.25,ENE,75,0.4,2.3,50,0.00,BKN,,0.00,WeatherDisplay:10.37,2013-04-26 21:09:00,
2013-04-26 17:11:00,69.3,49.9,30.25,ENE,75,0.9,2.0,50,0.00,BKN,,0.00,WeatherDisplay:10.37,2013-04-26 21:11:00,
2013-04-26 17:13:00,69.4,49.4,30.25,ENE,75,0.6,3.5,49,0.00,BKN,,0.00,WeatherDisplay:10.37,2013-04-26 21:13:00,
2013-04-26 17:14:00,69.4,49.9,30.25,ENE,75,0.1,1.1,50,0.00,BKN,,0.00,WeatherDisplay:10.37,2013-04-26 21:14:00,
2013-04-26 17:15:00,69.5,50.6,30.25,ENE,75,0.5,2.3,51,0.00,BKN,,0.00,WeatherDisplay:10.37,2013-04-26 21:15:00,
2013-04-26 17:17:00,69.6,50.7,30.25,ENE,75,0.0,0.0,51,0.00,BKN,,0.00,WeatherDisplay:10.37,2013-04-26 21:17:00,
2013-04-26 17:18:00,69.6,51.7,30.25,ENE,75,0.0,2.0,53,0.00,BKN,,0.00,WeatherDisplay:10.37,2013-04-26 21:18:00,
2013-04-26 17:19:00,69.6,52.2,30.25,East,101,1.4,3.5,54,0.00,BKN,,0.00,WeatherDisplay:10.37,2013-04-26 21:19:00,
2013-04-26 17:20:00,69.7,52.8,30.25,SE,134,2.7,4.0,55,0.00,BKN,,0.00,WeatherDisplay:10.37,2013-04-26 21:20:00,
2013-04-26 17:22:00,69.8,51.9,30.25,ESE,113,3.6,3.6,53,0.00,BKN,,0.00,WeatherDisplay:10.37,2013-04-26 21:22:00,
2013-04-26 17:23:00,69.8,50.9,30.25,ESE,112,2.1,4.6,51,0.00,BKN,,0.00,WeatherDisplay:10.37,2013-04-26 21:23:00,
2013-04-26 17:24:00,69.9,50.9,30.25,ESE,112,0.8,3.5,51,0.00,BKN,,0.00,WeatherDisplay:10.37,2013-04-26 21:24:00,
2013-04-26 17:25:00,69.9,50.9,30.25,ESE,112,0.0,1.1,51,0.00,BKN,,0.00,WeatherDisplay:10.37,2013-04-26 21:25:00,
2013-04-26 17:27:00,69.9,50.4,30.26,ESE,112,0.0,0.0,50,0.00,BKN,,0.00,WeatherDisplay:10.37,2013-04-26 21:27:00,
2013-04-26 17:28:00,69.8,49.8,30.26,ESE,117,0.1,1.1,49,0.00,BKN,,0.00,WeatherDisplay:10.37,2013-04-26 21:28:00,
2013-04-26 17:29:00,69.7,50.8,30.26,ESE,120,0.1,1.1,51,0.00,BKN,,0.00,WeatherDisplay:10.37,2013-04-26 21:29:00,
2013-04-26 17:31:00,69.7,51.3,30.26,ESE,120,0.0,1.1,52,0.00,BKN,,0.00,WeatherDisplay:10.37,2013-04-26 21:31:00,
2013-04-26 17:32:00,69.7,52.3,30.26,ESE,120,0.0,0.0,54,0.00,BKN,,0.00,WeatherDisplay:10.37,2013-04-26 21:32:00,
2013-04-26 17:34:00,69.6,51.2,30.27,ESE,120,0.0,0.0,52,0.00,BKN,,0.00,WeatherDisplay:10.37,2013-04-26 21:34:00,
2013-04-26 17:35:00,69.6,50.7,30.27,ESE,120,0.0,0.0,51,0.00,BKN,,0.00,WeatherDisplay:10.37,2013-04-26 21:35:00,
2013-04-26 17:36:00,69.5,52.1,30.27,ESE,120,0.0,0.0,54,0.00,BKN,,0.00,WeatherDisplay:10.37,2013-04-26 21:36:00,
2013-04-26 17:38:00,69.5,52.6,30.27,ESE,121,1.1,1.1,55,0.00,BKN,,0.00,WeatherDisplay:10.37,2013-04-26 21:38:00,
2013-04-26 17:39:00,69.5,51.1,30.27,ESE,121,0.1,3.5,52,0.00,BKN,,0.00,WeatherDisplay:10.37,2013-04-26 21:39:00,
2013-04-26 17:40:00,69.4,52.0,30.27,ESE,121,0.0,0.0,54,0.00,BKN,,0.00,WeatherDisplay:10.37,2013-04-26 21:40:00,
2013-04-26 17:41:00,69.4,53.0,30.27,ESE,121,0.1,0.0,56,0.00,BKN,,0.00,WeatherDisplay:10.37,2013-04-26 21:41:00,
2013-04-26 17:43:00,69.3,50.9,30.28,ESE,121,0.0,0.0,52,0.00,BKN,,0.00,WeatherDisplay:10.37,2013-04-26 21:43:00,
2013-04-26 17:44:00,69.3,51.4,30.28,ESE,121,0.0,0.0,53,0.00,BKN,,0.00,WeatherDisplay:10.37,2013-04-26 21:44:00,
2013-04-26 17:45:00,69.3,51.9,30.28,ESE,121,0.0,0.0,54,0.00,BKN,,0.00,WeatherDisplay:10.37,2013-04-26 21:45:00,
2013-04-26 17:46:00,69.2,52.3,30.27,ESE,121,0.0,0.0,55,0.00,BKN,,0.00,WeatherDisplay:10.37,2013-04-26 21:46:00,
2013-04-26 17:49:00,69.2,53.3,30.28,ESE,121,0.0,0.0,57,0.00,BKN,,0.00,WeatherDisplay:10.37,2013-04-26 21:49:00,
2013-04-26 17:50:00,69.2,54.3,30.28,ESE,121,0.0,0.0,59,0.00,BKN,,0.00,WeatherDisplay:10.37,2013-04-26 21:50:00,
2013-04-26 17:51:00,69.1,52.2,30.28,ESE,121,0.0,0.0,55,0.00,BKN,,0.00,WeatherDisplay:10.37,2013-04-26 21:51:00,
2013-04-26 17:54:00,69.0,53.1,30.28,ESE,121,0.0,0.0,57,0.00,BKN,,0.00,WeatherDisplay:10.37,2013-04-26 21:54:00,
2013-04-26 17:55:00,68.9,52.6,30.28,ESE,121,0.0,0.0,56,0.00,BKN,,0.00,WeatherDisplay:10.37,2013-04-26 21:55:00,
2013-04-26 17:56:00,68.8,52.9,30.28,ESE,121,0.0,0.0,57,0.00,BKN,,0.00,WeatherDisplay:10.37,2013-04-26 21:56:00,
2013-04-26 17:59:00,68.5,53.6,30.28,ESE,117,0.0,0.0,59,0.00,BKN,,0.00,WeatherDisplay:10.37,2013-04-26 21:59:00,
2013-04-26 18:00:00,68.4,53.5,30.28,ESE,118,0.0,0.0,59,0.00,BKN,,0.00,WeatherDisplay:10.37,2013-04-26 22:00:00,
2013-04-26 18:01:00,68.2,52.9,30.28,ESE,118,0.0,0.0,58,0.00,FEW,,0.00,WeatherDisplay:10.37,2013-04-26 22:01:00,
2013-04-26 18:04:00,67.8,53.9,30.29,ESE,117,0.0,1.1,61,0.00,FEW,,0.00,WeatherDisplay:10.37,2013-04-26 22:04:00,
2013-04-26 18:05:00,67.7,52.9,30.29,ESE,118,0.0,0.0,59,0.00,FEW,,0.00,WeatherDisplay:10.37,2013-04-26 22:05:00,
2013-04-26 18:06:00,67.7,52.9,30.29,ESE,118,0.0,0.0,59,0.00,FEW,,0.00,WeatherDisplay:10.37,2013-04-26 22:06:00,
2013-04-26 18:09:00,67.3,54.3,30.29,ESE,117,0.0,1.1,63,0.00,FEW,,0.00,WeatherDisplay:10.37,2013-04-26 22:09:00,
2013-04-26 18:10:00,67.2,53.3,30.29,ESE,118,0.0,0.0,61,0.00,FEW,,0.00,WeatherDisplay:10.37,2013-04-26 22:10:00,
2013-04-26 18:11:00,67.1,52.3,30.29,ESE,118,0.0,0.0,59,0.00,FEW,,0.00,WeatherDisplay:10.37,2013-04-26 22:11:00,
2013-04-26 18:14:00,67.0,55.3,30.29,NNE,14,1.2,3.0,66,0.00,FEW,,0.00,WeatherDisplay:10.37,2013-04-26 22:14:00,
2013-04-26 18:16:00,66.8,54.2,30.30,North,355,3.7,4.6,64,0.00,FEW,,0.00,WeatherDisplay:10.37,2013-04-26 22:16:00,
2013-04-26 18:19:00,66.3,52.4,30.29,North,355,0.0,2.3,61,0.00,FEW,,0.00,WeatherDisplay:10.37,2013-04-26 22:19:00,
2013-04-26 18:21:00,66.2,51.9,30.30,North,355,2.7,3.5,60,0.00,FEW,,0.00,WeatherDisplay:10.37,2013-04-26 22:21:00,
2013-04-26 18:24:00,66.0,51.7,30.30,North,355,2.1,3.5,60,0.00,FEW,,0.00,WeatherDisplay:10.37,2013-04-26 22:24:00,
2013-04-26 18:26:00,65.9,50.7,30.30,North,351,1.0,4.6,58,0.00,FEW,,0.00,WeatherDisplay:10.37,2013-04-26 22:26:00,
2013-04-26 18:27:00,65.8,50.1,30.30,North,351,0.7,4.0,57,0.00,FEW,,0.00,WeatherDisplay:10.37,2013-04-26 22:27:00,
2013-04-26 18:30:00,65.7,51.4,30.30,North,351,0.5,2.3,60,0.00,FEW,,0.00,WeatherDisplay:10.37,2013-04-26 22:30:00,
2013-04-26 18:31:00,65.7,51.0,30.30,North,351,0.1,3.5,59,0.00,FEW,,0.00,WeatherDisplay:10.37,2013-04-26 22:31:00,
2013-04-26 18:32:00,65.7,49.6,30.30,NNW,348,1.2,3.5,56,0.00,FEW,,0.00,WeatherDisplay:10.37,2013-04-26 22:32:00,
2013-04-26 18:35:00,65.8,50.6,30.30,North,11,0.9,3.5,58,0.00,FEW,,0.00,WeatherDisplay:10.37,2013-04-26 22:35:00,
2013-04-26 18:36:00,65.8,50.6,30.31,North,11,0.7,2.3,58,0.00,FEW,,0.00,WeatherDisplay:10.37,2013-04-26 22:36:00,
2013-04-26 18:37:00,65.8,50.6,30.31,North,10,1.1,3.0,58,0.00,FEW,,0.00,WeatherDisplay:10.37,2013-04-26 22:37:00,
2013-04-26 18:40:00,65.7,50.5,30.31,North,8,0.0,4.0,58,0.00,FEW,,0.00,WeatherDisplay:10.37,2013-04-26 22:40:00,
2013-04-26 18:42:00,65.6,50.0,30.31,North,355,2.3,4.6,57,0.00,FEW,,0.00,WeatherDisplay:10.37,2013-04-26 22:42:00,
2013-04-26 18:43:00,65.6,49.5,30.31,NW,309,2.7,5.0,56,0.00,FEW,,0.00,WeatherDisplay:10.37,2013-04-26 22:43:00,
2013-04-26 18:45:00,65.4,47.8,30.31,NNW,345,4.1,4.6,53,0.00,FEW,,0.00,WeatherDisplay:10.37,2013-04-26 22:45:00,
2013-04-26 18:47:00,65.3,48.2,30.31,North,352,3.3,5.8,54,0.00,FEW,,0.00,WeatherDisplay:10.37,2013-04-26 22:47:00,
2013-04-26 18:48:00,65.2,47.6,30.31,North,350,4.0,5.8,53,0.00,FEW,,0.00,WeatherDisplay:10.37,2013-04-26 22:48:00,
2013-04-26 18:50:00,65.1,46.5,30.31,NNW,340,4.3,6.9,51,0.00,FEW,,0.00,WeatherDisplay:10.37,2013-04-26 22:50:00,
2013-04-26 18:52:00,65.1,46.5,30.31,NNW,329,0.1,3.5,51,0.00,FEW,,0.00,WeatherDisplay:10.37,2013-04-26 22:52:00,
2013-04-26 18:53:00,65.0,46.9,30.31,NW,309,0.5,2.3,52,0.00,FEW,,0.00,WeatherDisplay:10.37,2013-04-26 22:53:00,
2013-04-26 18:56:00,65.0,47.9,30.31,NNW,327,0.9,3.5,54,0.00,FEW,,0.00,WeatherDisplay:10.37,2013-04-26 22:56:00,
2013-04-26 18:57:00,65.0,47.4,30.31,North,350,1.4,3.5,53,0.00,FEW,,0.00,WeatherDisplay:10.37,2013-04-26 22:57:00,
2013-04-26 18:58:00,65.0,47.4,30.32,NW,326,3.8,5.8,53,0.00,FEW,,0.00,WeatherDisplay:10.37,2013-04-26 22:58:00,
2013-04-26 19:01:00,64.6,47.1,30.32,NNW,341,7.0,10.4,53,0.00,OVC,,0.00,WeatherDisplay:10.37,2013-04-26 23:01:00,
2013-04-26 19:02:00,64.5,47.0,30.32,NNW,343,8.0,11.5,53,0.00,OVC,,0.00,WeatherDisplay:10.37,2013-04-26 23:02:00,
2013-04-26 19:03:00,64.4,46.9,30.32,NNW,347,7.0,11.5,53,0.00,OVC,,0.00,WeatherDisplay:10.37,2013-04-26 23:03:00,
2013-04-26 19:06:00,64.0,46.0,30.33,NNW,344,10.8,15.0,52,0.00,OVC,,0.00,WeatherDisplay:10.37,2013-04-26 23:06:00,
2013-04-26 19:07:00,64.0,46.0,30.33,NNW,345,7.5,11.5,52,0.00,OVC,,0.00,WeatherDisplay:10.37,2013-04-26 23:07:00,
2013-04-26 19:08:00,63.9,45.9,30.33,NNW,342,7.8,11.5,52,0.00,OVC,,0.00,WeatherDisplay:10.37,2013-04-26 23:08:00,
2013-04-26 19:09:00,63.7,46.7,30.33,NNW,330,8.1,13.0,54,0.00,OVC,,0.00,WeatherDisplay:10.37,2013-04-26 23:09:00,
2013-04-26 19:11:00,63.4,46.0,30.33,NNW,338,10.0,12.7,53,0.00,OVC,,0.00,WeatherDisplay:10.37,2013-04-26 23:11:00,
2013-04-26 19:13:00,63.2,46.3,30.33,NNW,341,9.9,13.0,54,0.00,OVC,,0.00,WeatherDisplay:10.37,2013-04-26 23:13:00,
2013-04-26 19:14:00,63.0,47.1,30.33,NNW,335,10.1,13.0,56,0.00,OVC,,0.00,WeatherDisplay:10.37,2013-04-26 23:14:00,
2013-04-26 19:16:00,62.7,48.2,30.34,NNW,343,8.6,11.5,59,0.00,OVC,,0.00,WeatherDisplay:10.37,2013-04-26 23:16:00,
2013-04-26 19:18:00,62.4,47.9,30.34,NNW,338,8.8,12.7,59,0.00,OVC,,0.00,WeatherDisplay:10.37,2013-04-26 23:18:00,
2013-04-26 19:19:00,62.3,47.3,30.34,NNW,334,9.1,12.7,58,0.00,OVC,,0.00,WeatherDisplay:10.37,2013-04-26 23:19:00,
2013-04-26 19:20:00,62.1,47.6,30.34,NNW,342,7.8,11.5,59,0.00,OVC,,0.00,WeatherDisplay:10.37,2013-04-26 23:20:00,
2013-04-26 19:21:00,61.9,48.3,30.34,NNW,343,10.2,13.8,61,0.00,OVC,,0.00,WeatherDisplay:10.37,2013-04-26 23:21:00,
2013-04-26 19:23:00,61.6,48.0,30.34,NNW,335,9.3,12.7,61,0.00,OVC,,0.00,WeatherDisplay:10.37,2013-04-26 23:23:00,
2013-04-26 19:24:00,61.5,47.9,30.34,NNW,332,8.9,11.5,61,0.00,OVC,,0.00,WeatherDisplay:10.37,2013-04-26 23:24:00,
2013-04-26 19:25:00,61.4,47.4,30.34,NNW,338,9.8,13.0,60,0.00,OVC,,0.00,WeatherDisplay:10.37,2013-04-26 23:25:00,
2013-04-26 19:27:00,61.1,48.4,30.34,NNW,334,10.8,14.0,63,0.00,OVC,,0.00,WeatherDisplay:10.37,2013-04-26 23:27:00,
2013-04-26 19:28:00,61.0,48.7,30.34,NNW,347,11.3,16.1,64,0.00,OVC,,0.00,WeatherDisplay:10.37,2013-04-26 23:28:00,
2013-04-26 19:29:00,61.0,48.7,30.34,NNW,345,10.2,16.1,64,0.00,OVC,,0.00,WeatherDisplay:10.37,2013-04-26 23:29:00,
2013-04-26 19:30:00,60.9,49.1,30.34,NNW,339,8.9,11.5,65,0.00,OVC,,0.00,WeatherDisplay:10.37,2013-04-26 23:30:00,
2013-04-26 19:32:00,60.3,50.1,30.34,NNW,338,8.4,13.8,69,0.00,OVC,,0.00,WeatherDisplay:10.37,2013-04-26 23:32:00,
2013-04-26 19:34:00,60.3,50.5,30.33,North,351,5.6,10.4,70,0.00,OVC,,0.00,WeatherDisplay:10.37,2013-04-26 23:34:00,
2013-04-26 19:35:00,60.2,50.4,30.33,North,0,5.5,7.0,70,0.00,OVC,,0.00,WeatherDisplay:10.37,2013-04-26 23:35:00,
2013-04-26 19:38:00,59.9,50.1,30.33,North,8,8.6,13.8,70,0.00,OVC,,0.00,WeatherDisplay:10.37,2013-04-26 23:38:00,
2013-04-26 19:39:00,59.7,49.9,30.32,North,358,10.7,13.8,70,0.01,RA,,0.01,WeatherDisplay:10.37,2013-04-26 23:39:00,
2013-04-26 19:40:00,59.6,49.4,30.32,NE,35,5.6,12.7,69,0.01,RA,,0.01,WeatherDisplay:10.37,2013-04-26 23:40:00,
2013-04-26 19:43:00,59.5,50.5,30.31,NNE,33,7.7,11.5,72,0.01,RA,,0.01,WeatherDisplay:10.37,2013-04-26 23:43:00,
2013-04-26 19:44:00,59.5,50.1,30.31,NNE,33,4.7,11.5,71,0.01,RA,,0.01,WeatherDisplay:10.37,2013-04-26 23:44:00,
2013-04-26 19:45:00,59.5,50.1,30.31,NNW,344,3.1,10.4,71,0.01,RA,,0.01,WeatherDisplay:10.37,2013-04-26 23:45:00,
2013-04-26 19:48:00,59.4,50.0,30.31,North,351,4.9,9.0,71,0.01,RA,,0.01,WeatherDisplay:10.37,2013-04-26 23:48:00,
2013-04-26 19:49:00,59.4,49.2,30.31,North,349,7.3,10.4,69,0.01,OVC,,0.01,WeatherDisplay:10.37,2013-04-26 23:49:00,
2013-04-26 19:50:00,59.3,49.5,30.31,NNW,340,4.3,10.4,70,0.01,OVC,,0.01,WeatherDisplay:10.37,2013-04-26 23:50:00,
2013-04-26 19:51:00,59.3,49.5,30.31,NNW,345,7.8,13.0,70,0.01,OVC,,0.01,WeatherDisplay:10.37,2013-04-26 23:51:00,
2013-04-26 19:53:00,59.2,49.0,30.30,North,9,9.6,12.7,69,0.01,OVC,,0.01,WeatherDisplay:10.37,2013-04-26 23:53:00,
2013-04-26 19:54:00,59.3,49.1,30.30,NNE,28,6.8,16.1,69,0.01,OVC,,0.01,WeatherDisplay:10.37,2013-04-26 23:54:00,
2013-04-26 20:05:00,59.3,49.1,30.30,NNE,12,2.1,6.9,69,0.01,OVC,,0.01,WeatherDisplay:10.37,2013-04-27 00:05:00,
2013-04-26 20:06:00,59.4,48.8,30.29,NE,47,1.3,3.5,68,0.01,OVC,,0.01,WeatherDisplay:10.37,2013-04-27 00:06:00,
2013-04-26 20:10:00,59.7,49.1,30.28,ENE,63,2.9,6.0,68,0.01,OVC,,0.01,WeatherDisplay:10.37,2013-04-27 00:10:00,
2013-04-26 20:11:00,59.8,49.2,30.29,East,81,4.0,6.9,68,0.01,OVC,,0.01,WeatherDisplay:10.37,2013-04-27 00:11:00,
2013-04-26 20:12:00,59.7,49.1,30.29,East,80,3.4,6.9,68,0.01,OVC,,0.01,WeatherDisplay:10.37,2013-04-27 00:12:00,
2013-04-26 20:16:00,59.9,50.5,30.30,East,89,0.1,1.0,71,0.01,OVC,,0.01,WeatherDisplay:10.37,2013-04-27 00:16:00,
2013-04-26 20:17:00,59.9,50.5,30.30,SSW,193,2.1,3.5,71,0.01,OVC,,0.01,WeatherDisplay:10.37,2013-04-27 00:17:00,
2013-04-26 20:21:00,59.8,50.8,30.31,SW,236,3.3,3.5,72,0.01,OVC,,0.01,WeatherDisplay:10.37,2013-04-27 00:21:00,
2013-04-26 20:22:00,59.8,50.8,30.31,SW,233,3.1,5.8,72,0.01,OVC,,0.01,WeatherDisplay:10.37,2013-04-27 00:22:00,
2013-04-26 20:26:00,59.8,50.4,30.31,SW,234,0.6,4.6,71,0.01,OVC,,0.01,WeatherDisplay:10.37,2013-04-27 00:26:00,
2013-04-26 20:27:00,59.6,49.8,30.32,WSW,253,1.9,4.6,70,0.01,OVC,,0.01,WeatherDisplay:10.37,2013-04-27 00:27:00,
2013-04-26 20:28:00,59.6,49.8,30.32,WSW,254,0.1,3.5,70,0.01,OVC,,0.01,WeatherDisplay:10.37,2013-04-27 00:28:00,
2013-04-26 20:31:00,59.7,50.7,30.32,SSE,160,0.4,1.1,72,0.01,OVC,,0.01,WeatherDisplay:10.37,2013-04-27 00:31:00,
2013-04-26 20:32:00,59.7,49.9,30.32,SSE,158,0.8,2.3,70,0.01,OVC,,0.01,WeatherDisplay:10.37,2013-04-27 00:32:00,
2013-04-26 20:33:00,59.8,50.0,30.32,SSE,152,0.6,2.3,70,0.01,OVC,,0.01,WeatherDisplay:10.37,2013-04-27 00:33:00,
2013-04-26 20:36:00,59.9,51.2,30.31,SSE,149,0.0,2.3,73,0.01,OVC,,0.01,WeatherDisplay:10.37,2013-04-27 00:36:00,
2013-04-26 20:37:00,59.9,51.2,30.31,SSE,149,0.0,0.0,73,0.01,OVC,,0.01,WeatherDisplay:10.37,2013-04-27 00:37:00,
2013-04-26 20:38:00,59.9,51.2,30.31,SSE,149,0.0,0.0,73,0.01,OVC,,0.01,WeatherDisplay:10.37,2013-04-27 00:38:00,
2013-04-26 20:41:00,59.5,50.5,30.31,SW,232,0.2,1.1,72,0.00,OVC,,0.01,WeatherDisplay:10.37,2013-04-27 00:41:00,
2013-04-26 20:42:00,59.5,50.5,30.32,SW,232,0.3,1.1,72,0.00,OVC,,0.01,WeatherDisplay:10.37,2013-04-27 00:42:00,
2013-04-26 20:43:00,59.4,51.5,30.31,SW,232,0.4,1.1,75,0.00,OVC,,0.01,WeatherDisplay:10.37,2013-04-27 00:43:00,
2013-04-26 20:46:00,59.5,49.7,30.30,SW,232,0.0,0.0,70,0.00,OVC,,0.01,WeatherDisplay:10.37,2013-04-27 00:46:00,
2013-04-26 20:47:00,59.5,49.7,30.30,SW,232,0.0,0.0,70,0.00,OVC,,0.01,WeatherDisplay:10.37,2013-04-27 00:47:00,
2013-04-26 20:48:00,59.6,49.4,30.30,SSE,155,0.1,1.1,69,0.00,OVC,,0.01,WeatherDisplay:10.37,2013-04-27 00:48:00,
2013-04-26 20:52:00,59.7,51.4,30.30,SE,142,0.0,0.0,74,0.00,OVC,,0.01,WeatherDisplay:10.37,2013-04-27 00:52:00,
2013-04-26 20:53:00,59.7,50.7,30.30,SE,142,0.0,0.0,72,0.00,OVC,,0.01,WeatherDisplay:10.37,2013-04-27 00:53:00,
2013-04-26 20:57:00,59.5,51.2,30.30,SSE,147,0.0,0.0,74,0.00,OVC,,0.01,WeatherDisplay:10.37,2013-04-27 00:57:00,
2013-04-26 20:58:00,59.5,51.6,30.29,SSE,147,0.0,0.0,75,0.00,OVC,,0.01,WeatherDisplay:10.37,2013-04-27 00:58:00,
2013-04-26 21:02:00,59.1,51.9,30.30,SSE,150,0.7,3.5,77,0.00,OVC,,0.01,WeatherDisplay:10.37,2013-04-27 01:02:00,
2013-04-26 21:03:00,59.1,51.9,30.30,SSE,150,1.1,3.5,77,0.00,OVC,,0.01,WeatherDisplay:10.37,2013-04-27 01:03:00,
2013-04-26 21:07:00,58.7,51.2,30.30,South,190,0.0,0.0,76,0.00,OVC,,0.01,WeatherDisplay:10.37,2013-04-27 01:07:00,
2013-04-26 21:08:00,58.7,51.2,30.30,South,191,0.0,0.0,76,0.00,OVC,,0.01,WeatherDisplay:10.37,2013-04-27 01:08:00,
2013-04-26 21:09:00,58.7,51.2,30.30,South,190,0.0,0.0,76,0.00,OVC,,0.01,WeatherDisplay:10.37,2013-04-27 01:09:00,
2013-04-26 21:12:00,58.8,51.2,30.29,South,191,0.0,0.0,76,0.00,OVC,,0.01,WeatherDisplay:10.37,2013-04-27 01:12:00,
2013-04-26 21:13:00,58.8,51.2,30.29,South,190,0.0,0.0,76,0.00,OVC,,0.01,WeatherDisplay:10.37,2013-04-27 01:13:00,
2013-04-26 21:14:00,58.8,51.2,30.28,South,190,0.0,1.1,76,0.00,OVC,,0.01,WeatherDisplay:10.37,2013-04-27 01:14:00,
2013-04-26 21:17:00,58.7,51.2,30.28,NW,309,0.6,3.5,76,0.00,OVC,,0.01,WeatherDisplay:10.37,2013-04-27 01:17:00,
2013-04-26 21:18:00,58.7,51.5,30.28,NW,309,0.1,3.5,77,0.00,OVC,,0.01,WeatherDisplay:10.37,2013-04-27 01:18:00,
2013-04-26 21:19:00,58.6,51.4,30.28,NW,309,0.1,0.0,77,0.00,OVC,,0.01,WeatherDisplay:10.37,2013-04-27 01:19:00,
2013-04-26 21:23:00,58.4,51.2,30.28,NW,309,0.0,1.1,77,0.00,OVC,,0.01,WeatherDisplay:10.37,2013-04-27 01:23:00,
2013-04-26 21:24:00,58.4,51.6,30.28,NW,309,0.0,0.0,78,0.00,OVC,,0.01,WeatherDisplay:10.37,2013-04-27 01:24:00,
2013-04-26 21:28:00,58.6,53.1,30.28,NW,309,0.0,0.0,82,0.00,OVC,,0.01,WeatherDisplay:10.37,2013-04-27 01:28:00,
2013-04-26 21:29:00,58.6,53.1,30.28,NW,309,0.0,0.0,82,0.00,OVC,,0.01,WeatherDisplay:10.37,2013-04-27 01:29:00,
2013-04-26 21:33:00,58.5,53.0,30.28,West,278,2.0,3.5,82,0.00,OVC,,0.01,WeatherDisplay:10.37,2013-04-27 01:33:00,
2013-04-26 21:34:00,58.4,53.3,30.28,West,274,1.0,3.5,83,0.00,OVC,,0.01,WeatherDisplay:10.37,2013-04-27 01:34:00,
2013-04-26 21:35:00,58.4,53.6,30.28,West,274,0.2,2.3,84,0.00,OVC,,0.01,WeatherDisplay:10.37,2013-04-27 01:35:00,
2013-04-26 21:38:00,58.4,53.3,30.27,West,274,0.0,0.0,83,0.00,OVC,,0.01,WeatherDisplay:10.37,2013-04-27 01:38:00,
2013-04-26 21:39:00,58.4,53.3,30.27,West,274,0.0,0.0,83,0.00,OVC,,0.01,WeatherDisplay:10.37,2013-04-27 01:39:00,
2013-04-26 21:40:00,58.4,52.9,30.28,West,274,0.0,0.0,82,0.00,OVC,,0.01,WeatherDisplay:10.37,2013-04-27 01:40:00,
2013-04-26 21:44:00,58.3,53.2,30.28,West,274,0.0,1.1,83,0.00,OVC,,0.01,WeatherDisplay:10.37,2013-04-27 01:44:00,
2013-04-26 21:45:00,58.2,53.1,30.28,West,274,0.0,0.0,83,0.00,OVC,,0.01,WeatherDisplay:10.37,2013-04-27 01:45:00,
2013-04-26 21:49:00,57.7,53.5,30.28,West,274,0.0,0.0,86,0.00,OVC,,0.01,WeatherDisplay:10.37,2013-04-27 01:49:00,
2013-04-26 21:50:00,57.6,53.1,30.28,West,274,0.0,0.0,85,0.00,OVC,,0.01,WeatherDisplay:10.37,2013-04-27 01:50:00,
2013-04-26 21:51:00,57.6,53.1,30.28,West,274,0.0,0.0,85,0.00,OVC,,0.01,WeatherDisplay:10.37,2013-04-27 01:51:00,
2013-04-26 21:54:00,57.7,53.5,30.28,West,274,0.0,1.1,86,0.00,OVC,,0.01,WeatherDisplay:10.37,2013-04-27 01:54:00,
2013-04-26 21:55:00,57.7,53.5,30.28,West,274,0.0,1.1,86,0.00,OVC,,0.01,WeatherDisplay:10.37,2013-04-27 01:55:00,
2013-04-26 21:56:00,57.7,53.5,30.28,West,274,0.0,0.0,86,0.00,OVC,,0.01,WeatherDisplay:10.37,2013-04-27 01:56:00,
2013-04-26 21:59:00,57.8,53.0,30.27,West,276,0.0,1.1,84,0.00,OVC,,0.01,WeatherDisplay:10.37,2013-04-27 01:59:00,
2013-04-26 22:00:00,57.8,53.0,30.27,West,276,0.0,0.0,84,0.00,OVC,,0.01,WeatherDisplay:10.37,2013-04-27 02:00:00,
2013-04-26 22:01:00,57.8,52.7,30.27,WNW,283,1.1,2.3,83,0.00,OVC,,0.01,WeatherDisplay:10.37,2013-04-27 02:01:00,
2013-04-26 22:04:00,57.9,52.8,30.26,ENE,74,2.1,3.5,83,0.00,OVC,,0.01,WeatherDisplay:10.37,2013-04-27 02:04:00,
2013-04-26 22:05:00,57.9,52.8,30.26,ENE,74,1.2,3.5,83,0.00,OVC,,0.01,WeatherDisplay:10.37,2013-04-27 02:05:00,
2013-04-26 22:06:00,57.9,52.4,30.26,ENE,75,0.9,3.5,82,0.00,OVC,,0.01,WeatherDisplay:10.37,2013-04-27 02:06:00,
2013-04-26 22:09:00,57.9,53.4,30.27,ENE,74,0.0,0.0,85,0.00,OVC,,0.01,WeatherDisplay:10.37,2013-04-27 02:09:00,
2013-04-26 22:10:00,57.8,53.6,30.27,ENE,75,0.0,0.0,86,0.00,OVC,,0.01,WeatherDisplay:10.37,2013-04-27 02:10:00,
2013-04-26 22:11:00,57.8,53.6,30.28,ENE,74,0.0,0.0,86,0.00,OVC,,0.01,WeatherDisplay:10.37,2013-04-27 02:11:00,
2013-04-26 22:12:00,57.7,53.9,30.28,ENE,74,0.0,0.0,87,0.00,OVC,,0.01,WeatherDisplay:10.37,2013-04-27 02:12:00,
2013-04-26 22:15:00,57.3,52.8,30.28,ENE,72,0.0,0.0,85,0.00,OVC,,0.01,WeatherDisplay:10.37,2013-04-27 02:15:00,
2013-04-26 22:16:00,57.3,52.8,30.28,ENE,71,0.0,1.1,85,0.00,OVC,,0.01,WeatherDisplay:10.37,2013-04-27 02:16:00,
2013-04-26 22:17:00,57.3,53.1,30.28,ENE,71,0.0,1.0,86,0.00,OVC,,0.01,WeatherDisplay:10.37,2013-04-27 02:17:00,
2013-04-26 22:20:00,57.3,52.8,30.29,ENE,71,0.0,0.0,85,0.00,OVC,,0.01,WeatherDisplay:10.37,2013-04-27 02:20:00,
2013-04-26 22:21:00,57.4,53.2,30.29,ENE,71,0.0,0.0,86,0.00,OVC,,0.01,WeatherDisplay:10.37,2013-04-27 02:21:00,
2013-04-26 22:22:00,57.3,53.1,30.29,ENE,71,0.1,1.1,86,0.00,OVC,,0.01,WeatherDisplay:10.37,2013-04-27 02:22:00,
2013-04-26 22:25:00,57.3,53.1,30.29,ENE,71,0.0,0.0,86,0.00,OVC,,0.01,WeatherDisplay:10.37,2013-04-27 02:25:00,
2013-04-26 22:26:00,57.3,53.1,30.29,ENE,71,0.0,0.0,86,0.00,OVC,,0.01,WeatherDisplay:10.37,2013-04-27 02:26:00,
2013-04-26 22:27:00,57.3,53.1,30.29,ENE,71,0.0,0.0,86,0.00,OVC,,0.01,WeatherDisplay:10.37,2013-04-27 02:27:00,
2013-04-26 22:30:00,57.4,53.9,30.29,ENE,71,0.0,0.0,88,0.00,OVC,,0.01,WeatherDisplay:10.37,2013-04-27 02:30:00,
2013-04-26 22:31:00,57.4,53.9,30.29,ENE,71,0.0,0.0,88,0.00,OVC,,0.01,WeatherDisplay:10.37,2013-04-27 02:31:00,
2013-04-26 22:32:00,57.4,53.9,30.29,ENE,71,0.0,1.1,88,0.00,OVC,,0.01,WeatherDisplay:10.37,2013-04-27 02:32:00,
2013-04-26 22:36:00,57.2,53.0,30.30,ENE,71,0.0,0.0,86,0.00,OVC,,0.01,WeatherDisplay:10.37,2013-04-27 02:36:00,
2013-04-26 22:37:00,57.2,53.0,30.30,ENE,71,0.0,0.0,86,0.00,OVC,,0.01,WeatherDisplay:10.37,2013-04-27 02:37:00,
2013-04-26 22:41:00,57.3,53.5,30.30,ENE,71,0.0,0.0,87,0.00,OVC,,0.01,WeatherDisplay:10.37,2013-04-27 02:41:00,
2013-04-26 22:42:00,57.3,53.8,30.30,ENE,71,0.0,0.0,88,0.00,OVC,,0.01,WeatherDisplay:10.37,2013-04-27 02:42:00,
2013-04-26 22:43:00,57.3,54.1,30.30,ENE,71,0.0,0.0,89,0.00,OVC,,0.01,WeatherDisplay:10.37,2013-04-27 02:43:00,
2013-04-26 22:46:00,57.3,53.8,30.30,ENE,71,0.0,0.0,88,0.00,OVC,,0.01,WeatherDisplay:10.37,2013-04-27 02:46:00,
2013-04-26 22:47:00,57.3,53.8,30.30,ENE,71,0.0,0.0,88,0.00,OVC,,0.01,WeatherDisplay:10.37,2013-04-27 02:47:00,
2013-04-26 22:48:00,57.3,54.1,30.31,ENE,71,0.0,0.0,89,0.00,OVC,,0.01,WeatherDisplay:10.37,2013-04-27 02:48:00,
2013-04-26 22:51:00,57.1,53.9,30.31,ENE,71,0.1,1.1,89,0.00,OVC,,0.01,WeatherDisplay:10.37,2013-04-27 02:51:00,
2013-04-26 22:52:00,57.1,53.9,30.31,ENE,71,0.0,0.0,89,0.00,OVC,,0.01,WeatherDisplay:10.37,2013-04-27 02:52:00,
2013-04-26 22:53:00,57.0,53.5,30.31,ENE,71,0.0,0.0,88,0.00,OVC,,0.01,WeatherDisplay:10.37,2013-04-27 02:53:00,
2013-04-26 22:56:00,57.0,53.5,30.31,ENE,71,0.0,0.0,88,0.00,OVC,,0.01,WeatherDisplay:10.37,2013-04-27 02:56:00,
2013-04-26 22:57:00,57.0,53.5,30.31,ENE,71,0.0,0.0,88,0.00,OVC,,0.01,WeatherDisplay:10.37,2013-04-27 02:57:00,
2013-04-26 22:59:00,57.1,53.3,30.31,ENE,71,0.0,0.0,87,0.00,OVC,,0.01,WeatherDisplay:10.37,2013-04-27 02:59:00,
2013-04-26 23:01:00,57.1,53.0,30.31,ENE,66,0.1,1.1,86,0.00,OVC,,0.01,WeatherDisplay:10.37,2013-04-27 03:01:00,
2013-04-26 23:02:00,57.1,53.0,30.31,ENE,66,0.0,1.1,86,0.00,OVC,,0.01,WeatherDisplay:10.37,2013-04-27 03:02:00,
2013-04-26 23:04:00,57.1,52.6,30.31,ENE,64,0.8,3.5,85,0.00,OVC,,0.01,WeatherDisplay:10.37,2013-04-27 03:04:00,
2013-04-26 23:07:00,57.1,52.0,30.31,ENE,64,0.0,0.0,83,0.00,OVC,,0.01,WeatherDisplay:10.37,2013-04-27 03:07:00,
2013-04-26 23:08:00,57.1,52.3,30.31,ENE,64,0.0,0.0,84,0.00,OVC,,0.01,WeatherDisplay:10.37,2013-04-27 03:08:00,
2013-04-26 23:09:00,57.1,52.6,30.31,ENE,64,0.0,1.0,85,0.00,OVC,,0.01,WeatherDisplay:10.37,2013-04-27 03:09:00,
2013-04-26 23:12:00,57.1,53.6,30.31,ENE,64,0.0,0.0,88,0.00,OVC,,0.01,WeatherDisplay:10.37,2013-04-27 03:12:00,
2013-04-26 23:13:00,57.1,53.6,30.31,ENE,64,0.0,0.0,88,0.00,OVC,,0.01,WeatherDisplay:10.37,2013-04-27 03:13:00,
2013-04-26 23:14:00,57.1,53.6,30.30,ENE,64,0.0,0.0,88,0.00,OVC,,0.01,WeatherDisplay:10.37,2013-04-27 03:14:00,
2013-04-26 23:17:00,57.1,52.6,30.30,ENE,64,0.1,1.1,85,0.00,OVC,,0.01,WeatherDisplay:10.37,2013-04-27 03:17:00,
2013-04-26 23:18:00,57.1,52.3,30.30,ENE,64,0.0,0.0,84,0.00,OVC,,0.01,WeatherDisplay:10.37,2013-04-27 03:18:00,
2013-04-26 23:19:00,57.1,52.3,30.29,ENE,64,0.1,1.1,84,0.00,OVC,,0.01,WeatherDisplay:10.37,2013-04-27 03:19:00,
2013-04-26 23:22:00,57.1,52.6,30.29,ENE,64,0.7,3.5,85,0.00,OVC,,0.01,WeatherDisplay:10.37,2013-04-27 03:22:00,
2013-04-26 23:23:00,57.1,52.6,30.29,NE,55,1.4,3.5,85,0.00,OVC,,0.01,WeatherDisplay:10.37,2013-04-27 03:23:00,
2013-04-26 23:25:00,57.1,52.6,30.29,NE,55,1.2,3.5,85,0.00,OVC,,0.01,WeatherDisplay:10.37,2013-04-27 03:25:00,
2013-04-26 23:27:00,57.1,53.0,30.29,NE,55,0.1,1.1,86,0.00,OVC,,0.01,WeatherDisplay:10.37,2013-04-27 03:27:00,
2013-04-26 23:28:00,57.1,53.0,30.29,NE,51,1.1,3.0,86,0.00,OVC,,0.01,WeatherDisplay:10.37,2013-04-27 03:28:00,
2013-04-26 23:29:00,57.0,52.5,30.29,NE,51,1.5,3.5,85,0.00,OVC,,0.01,WeatherDisplay:10.37,2013-04-27 03:29:00,
2013-04-26 23:30:00,57.0,52.5,30.29,NE,51,0.2,3.5,85,0.00,OVC,,0.01,WeatherDisplay:10.37,2013-04-27 03:30:00,
2013-04-26 23:32:00,57.0,52.9,30.29,NE,51,0.0,0.0,86,0.00,OVC,,0.01,WeatherDisplay:10.37,2013-04-27 03:32:00,
2013-04-26 23:33:00,57.0,52.9,30.29,NE,51,0.0,0.0,86,0.00,OVC,,0.01,WeatherDisplay:10.37,2013-04-27 03:33:00,
2013-04-26 23:34:00,57.0,52.9,30.30,NE,51,0.0,1.1,86,0.00,OVC,,0.01,WeatherDisplay:10.37,2013-04-27 03:34:00,
2013-04-26 23:35:00,56.9,52.8,30.30,NE,51,0.0,0.0,86,0.00,OVC,,0.01,WeatherDisplay:10.37,2013-04-27 03:35:00,
2013-04-26 23:37:00,56.9,53.1,30.30,NE,51,0.0,0.0,87,0.00,OVC,,0.01,WeatherDisplay:10.37,2013-04-27 03:37:00,
2013-04-26 23:38:00,56.9,53.7,30.30,NE,51,0.0,0.0,89,0.00,OVC,,0.01,WeatherDisplay:10.37,2013-04-27 03:38:00,
2013-04-26 23:39:00,56.9,53.7,30.30,NE,51,0.0,0.0,89,0.00,OVC,,0.01,WeatherDisplay:10.37,2013-04-27 03:39:00,
2013-04-26 23:40:00,57.0,53.8,30.30,NE,51,0.0,0.0,89,0.00,OVC,,0.01,WeatherDisplay:10.37,2013-04-27 03:40:00,
2013-04-26 23:42:00,57.0,53.8,30.30,NE,51,0.0,0.0,89,0.00,OVC,,0.01,WeatherDisplay:10.37,2013-04-27 03:42:00,
2013-04-26 23:43:00,57.0,53.8,30.30,NE,51,0.0,0.0,89,0.00,OVC,,0.01,WeatherDisplay:10.37,2013-04-27 03:43:00,
2013-04-26 23:44:00,57.0,53.5,30.30,NE,51,0.0,0.0,88,0.00,OVC,,0.01,WeatherDisplay:10.37,2013-04-27 03:44:00,
2013-04-26 23:45:00,56.9,53.7,30.30,NE,51,0.0,0.0,89,0.00,OVC,,0.01,WeatherDisplay:10.37,2013-04-27 03:45:00,
2013-04-26 23:48:00,56.9,54.0,30.30,NE,51,0.0,0.0,90,0.00,OVC,,0.01,WeatherDisplay:10.37,2013-04-27 03:48:00,
2013-04-26 23:49:00,56.8,53.9,30.30,NE,51,0.0,0.0,90,0.00,OVC,,0.01,WeatherDisplay:10.37,2013-04-27 03:49:00,
2013-04-26 23:50:00,56.7,53.8,30.30,NE,51,0.0,1.0,90,0.00,OVC,,0.01,WeatherDisplay:10.37,2013-04-27 03:50:00,
2013-04-26 23:53:00,56.6,53.7,30.30,NE,51,0.0,0.0,90,0.00,OVC,,0.01,WeatherDisplay:10.37,2013-04-27 03:53:00,
2013-04-26 23:54:00,56.5,53.3,30.30,NE,51,0.0,1.1,89,0.00,OVC,,0.01,WeatherDisplay:10.37,2013-04-27 03:54:00,
2013-04-26 23:56:00,56.3,53.4,30.30,NE,51,0.0,0.0,90,0.00,OVC,,0.01,WeatherDisplay:10.37,2013-04-27 03:56:00,
2013-04-26 23:58:00,56.3,53.4,30.30,NE,51,0.0,1.1,90,0.00,OVC,,0.01,WeatherDisplay:10.37,2013-04-27 03:58:00,
2013-04-26 23:59:00,56.3,53.4,30.30,NE,51,0.0,0.0,90,0.00,OVC,,0.01,WeatherDisplay:10.37,2013-04-27 03:59:00,